[{"header": {"dx": 0.06612293990616946, "dy": 0.0552356325346848, "nx": 98, "ny": 59, "la1": 35.046912555036876, "la2": 31.78801023549047, "lo1": -121.43107172385933, "lo2": -114.95102361305473, "refTime": "2026041714", "parameterCategory": 1, "parameterNumber": 2}, "data": [0.0, -0.57, -1.27, -1.58, -1.58, -1.8, -1.84, -1.88, -2.15, -2.15, -2.79, -3.43, -2.86, -3.07, -3.82, -5.86, -6.28, -6.07, -6.17, -5.81, -5.81, -5.26, -3.83, -3.14, -2.53, -2.21, -1.9, -1.24, -1.26, -0.63, -0.0, -0.0, 0.45, 0.45, 0.45, 0.63, 0.4, -0.0, -0.0, -1.86, -3.07, -4.41, -6.26, -7.6, -7.06, -4.24, -3.16, -3.07, -2.98, -1.66, -1.66, -0.76, -1.49, -1.74, -2.21, -2.53, -2.21, -1.24, -0.8, 0.0, 0.0, 0.0, 0.95, 0.95, 1.34, 1.79, 2.6, 3.2, 3.45, 4.22, 4.8, 5.09, 4.66, 4.85, 5.36, 5.81, 6.26, 6.22, 6.94, 5.43, 4.84, 5.2, 4.8, 4.22, 3.83, 3.74, 3.47, 3.58, 4.02, 4.84, 3.79, 0.8, -0.78, -1.62, -1.52, -1.58, -1.58, -1.58, 0.0, 0.0, -0.57, -1.11, -1.11, -1.58, -1.6, -1.88, -1.9, -2.15, -2.53, -1.9, -1.9, -1.86, -1.6, -3.47, -3.82, -6.17, -5.73, -5.31, -6.26, -5.81, -4.82, -3.6, -2.5, -1.9, -1.9, -1.58, -1.86, -1.7, -1.34, -0.45, 0.0, 0.0, -0.45, -0.95, -0.6, -0.57, -1.24, -2.4, -3.95, -6.61, -7.6, -6.98, -6.54, -5.46, -4.11, -3.72, -2.98, -2.2, -2.3, -2.3, -2.3, -2.3, -2.51, -2.84, -2.21, -1.24, -0.8, 0.0, 0.0, 0.0, 0.0, 0.89, 1.34, 1.79, 2.6, 3.22, 3.16, 3.84, 4.19, 3.84, 4.66, 4.85, 4.92, 5.31, 5.75, 6.22, 6.94, 5.43, 4.84, 5.2, 4.8, 4.22, 3.83, 3.74, 3.47, 3.58, 4.02, 4.84, 3.79, 0.8, -0.78, -1.62, -1.52, -1.58, -1.58, -1.58, 1.05, 0.55, 0.0, -0.57, -1.11, -1.11, -1.13, -1.16, -1.61, -1.61, -2.51, -2.86, -1.61, -1.26, -0.89, -1.79, -3.13, -5.36, -5.81, -5.81, -5.31, -6.17, -6.26, -5.36, -2.97, -1.9, -1.9, -1.58, -1.86, -2.12, -1.79, -1.34, -1.34, -2.12, -2.8, -2.98, -2.86, -1.88, -1.88, -3.45, -6.22, -6.71, -6.79, -6.94, -6.44, -6.06, -5.06, -4.36, -3.9, -3.33, -3.33, -3.11, -2.29, -2.4, -2.79, -3.16, -2.86, -1.9, -0.8, -0.6, 0.0, 0.0, 0.45, 0.45, 0.89, 1.2, 1.26, 2.21, 2.53, 2.4, 3.22, 4.11, 5.2, 5.75, 5.36, 5.59, 5.82, 6.98, 6.54, 5.82, 4.81, 4.81, 4.81, 4.84, 3.83, 3.74, 4.02, 4.47, 5.29, 6.44, 6.01, 3.33, 0.79, 0.0, -0.87, -1.6, -2.44, -2.28, 1.8, 1.16, 0.55, 0.0, -0.57, -0.57, -0.57, -1.13, -1.16, -0.61, -1.13, -1.73, -1.16, -1.2, -1.26, -1.79, -3.13, -3.97, -5.31, -4.87, -4.02, -4.47, -5.81, -5.36, -4.02, -2.54, -2.4, -1.86, -1.26, -0.95, -1.2, -1.7, -3.07, -5.37, -5.59, -5.24, -4.43, -3.22, -1.88, -3.74, -5.81, -4.87, -4.24, -4.8, -5.09, -5.43, -4.65, -4.36, -4.16, -3.79, -3.55, -3.33, -3.22, -3.07, -3.49, -3.83, -3.22, -2.23, -0.8, 0.0, 0.0, 0.0, 0.45, 0.0, 0.0, 0.45, -0.0, 0.57, 0.54, 0.61, 1.66, 3.84, 5.75, 6.55, 7.15, 7.11, 6.4, 5.69, 6.44, 5.69, 4.02, 4.16, 4.16, 4.01, 2.41, 2.23, 4.02, 5.75, 6.8, 7.41, 6.32, 4.29, 2.53, 1.34, -1.26, -2.6, -2.29, -2.31, 2.29, 1.67, 1.07, 0.55, 0.0, 0.0, -0.57, -0.59, -0.59, 0.0, 0.0, -0.57, -1.16, -1.88, -1.9, -2.17, -2.63, -3.07, -3.45, -3.07, -2.23, -1.86, -1.86, -1.86, -2.8, -2.97, -2.23, -1.26, -0.6, -0.0, -0.0, -2.23, -6.28, -7.71, -6.79, -5.94, -5.81, -2.53, -0.6, -2.12, -5.64, -5.36, -3.51, -2.68, -2.24, -2.23, -2.23, -1.9, -2.21, -2.79, -3.79, -3.79, -3.84, -3.83, -4.15, -3.74, -3.2, -2.23, -0.6, 0.0, 0.0, 0.0, 0.0, -1.34, -1.79, -0.89, -0.45, -0.45, -0.89, 0.45, 0.45, 3.13, 4.92, 6.66, 8.05, 8.49, 7.89, 6.44, 6.44, 5.69, 4.71, 4.03, 3.09, 2.47, 1.66, 0.88, 3.35, 6.06, 7.64, 6.42, 4.83, 4.29, 3.16, 0.0, -2.68, -2.84, -1.7, -1.55, 2.75, 2.32, 1.84, 1.07, 0.55, 0.0, 0.0, 0.0, 0.0, 0.0, 0.59, 0.0, -1.0, -1.2, -1.9, -2.12, -1.86, -1.61, -1.88, -1.9, -1.26, -0.6, -0.0, -0.0, -0.0, -0.8, -1.26, -1.2, -0.89, -0.0, -0.0, -2.5, -6.28, -7.6, -6.67, -6.66, -6.26, -2.24, 0.45, 0.0, -4.19, -9.6, -7.15, -4.02, -2.24, -1.34, -0.45, 0.45, -0.89, -2.54, -3.22, -3.45, -3.45, -4.0, -4.66, -3.32, -2.8, -2.6, -1.26, -0.6, 0.0, 0.0, -1.34, -2.17, -2.23, -1.26, -0.6, -1.24, -2.3, -1.6, 0.0, 0.82, 2.98, 5.43, 6.94, 8.63, 9.06, 7.35, 5.82, 6.44, 5.69, 4.71, 3.06, 1.67, 1.65, 1.52, 3.25, 5.3, 6.09, 4.71, 2.99, 3.09, 1.7, -1.74, -3.58, -2.6, -1.63, -1.63, 3.4, 2.77, 2.32, 1.7, 1.19, 0.55, 0.0, 0.0, 0.0, 0.57, 0.57, 0.0, -0.6, -0.6, -0.95, -0.89, -0.6, -0.0, -0.6, -0.8, -0.89, 0.45, 0.0, -0.0, -0.0, -0.0, -0.45, -0.95, -0.95, -1.2, -1.74, -3.48, -5.6, -6.21, -6.22, -7.01, -7.21, -4.0, 0.6, 3.32, 0.85, -8.58, -11.5, -7.64, -4.43, -2.23, -1.2, 0.0, 0.45, -2.84, -4.8, -2.86, -3.2, -3.74, -4.24, -3.74, -2.23, -2.23, -1.86, -0.6, 0.0, -0.89, -2.24, -2.8, -3.16, -2.07, -0.87, -0.73, -2.4, -2.21, -0.82, 0.0, 0.0, 2.41, 4.6, 6.05, 7.69, 7.35, 6.94, 8.06, 7.35, 6.31, 3.85, 1.54, 0.8, 2.18, 3.14, 4.65, 4.06, 2.31, 1.5, 1.4, -1.7, -4.22, -3.63, -2.4, -1.65, -1.55, 3.37, 3.2, 2.77, 2.16, 1.7, 1.19, 0.55, 0.55, 0.55, 1.08, 0.55, 0.0, 0.0, 0.0, 0.89, 1.2, 1.26, 1.26, 1.2, 0.63, -0.0, -0.0, 0.45, 0.0, 0.0, 0.0, -0.8, -1.9, -2.12, -2.97, -4.29, -5.37, -5.4, -5.36, -4.73, -5.6, -7.28, -5.69, -1.08, 2.95, 4.65, -0.98, -10.02, -8.94, -7.65, -6.4, -4.46, -1.26, -0.63, -1.6, -1.26, -1.9, -2.12, -2.24, -2.12, -1.7, -1.2, -1.34, -1.2, -0.95, -0.45, -0.89, -1.79, -2.12, -2.6, -2.15, -0.76, 0.0, 0.0, 0.0, 0.0, 0.0, 0.0, 0.79, 1.56, 2.06, 3.88, 6.39, 8.05, 9.27, 9.21, 7.8, 5.77, 3.53, 1.44, 1.39, 2.89, 3.91, 1.55, 0.0, 0.0, -0.67, -4.01, -4.74, -3.33, -1.58, -0.8, -0.8, 4.03, 4.05, 3.42, 2.8, 2.36, 1.7, 1.73, 1.19, 1.19, 1.55, 1.07, 0.0, 0.0, 0.0, 1.26, 1.34, 1.7, 1.86, 1.86, 0.57, -0.0, -0.65, -0.57, 0.45, 0.0, 0.0, -1.24, -2.23, -2.68, -3.04, -4.34, -4.92, -4.02, -4.34, -3.07, -2.86, -4.43, -5.2, -2.21, 0.96, 4.11, 2.23, -0.85, -6.98, -8.91, -8.46, -8.53, -5.44, -2.07, -0.71, -1.6, -0.95, -0.89, -0.45, -0.45, -0.45, -0.89, -0.45, -0.45, -0.45, -0.45, -0.45, -0.89, -1.34, -1.79, -1.79, -0.63, 0.8, 1.49, 2.6, 3.04, 4.02, 4.85, 3.74, 2.84, 3.22, 3.27, 4.5, 6.79, 7.59, 8.3, 8.57, 7.15, 6.29, 4.31, 2.12, 0.69, 0.0, -1.6, -0.89, -1.49, -2.98, -4.71, -5.76, -4.2, -1.6, -0.81, -0.81, 4.44, 4.03, 3.4, 2.77, 2.8, 2.36, 2.18, 1.7, 1.7, 2.36, 1.67, 1.67, 0.0, -0.57, -0.61, 0.0, 0.89, 0.89, -0.0, -0.0, -1.58, -1.24, -0.8, -0.63, -1.2, -1.58, -1.26, -1.34, -1.79, -2.24, -3.13, -3.58, -3.13, -3.9, -4.98, -4.4, -2.53, -3.22, -2.99, 0.0, 1.41, 1.88, 1.2, -1.26, -6.24, -9.17, -9.56, -8.85, -5.38, -2.4, -0.8, -0.45, 0.0, 0.0, -0.89, -1.2, -1.49, -1.2, -0.89, -0.45, -0.45, -0.45, -1.79, -1.2, -1.86, -2.3, -1.55, -0.0, 1.41, 3.11, 4.74, 5.69, 6.13, 6.11, 6.26, 6.55, 6.44, 5.64, 5.62, 5.86, 6.44, 8.57, 9.19, 8.59, 7.94, 6.28, 3.64, 1.34, 2.79, 2.21, 0.0, -1.49, -3.4, -4.68, -4.65, -1.54, -0.76, -0.79, 4.66, 4.45, 4.05, 3.42, 3.0, 2.8, 2.16, 2.36, 2.36, 2.8, 2.32, 2.32, 1.14, 0.0, -1.16, -0.57, 0.0, 0.0, 0.0, -0.89, -1.2, -1.34, -1.34, -1.34, -1.79, -2.24, -1.34, 0.45, -0.45, -1.58, -2.54, -1.79, -1.79, -3.07, -4.93, -5.24, -3.22, -2.99, -3.79, -1.52, 0.0, 0.0, 0.63, 0.45, -4.65, -7.41, -8.93, -8.68, -7.02, -5.43, -3.83, -2.24, -2.24, -2.24, -3.95, -5.16, -3.45, -1.86, -0.63, 0.0, 0.0, 0.0, -0.95, -1.79, -3.74, -3.79, -3.22, -0.82, 0.72, 3.33, 4.95, 5.72, 6.35, 7.06, 7.48, 8.46, 8.25, 7.41, 6.14, 5.52, 5.0, 6.62, 7.85, 10.09, 9.45, 9.4, 9.28, 8.49, 8.01, 6.67, 5.36, 4.15, 0.88, -2.44, -4.0, -3.1, -1.61, -1.54, 5.32, 4.69, 4.71, 3.83, 3.42, 3.45, 3.0, 3.0, 3.45, 3.0, 2.77, 2.32, 1.7, 0.57, -0.51, -0.99, -0.6, 0.0, 0.0, 0.0, -0.45, -0.89, -1.34, -1.79, -2.68, -3.13, -2.24, -1.6, -1.34, -2.54, -2.23, -1.6, -1.79, -2.63, -3.53, -4.46, -3.43, -3.07, -3.9, -2.8, -1.41, -1.2, -0.63, 1.34, -3.58, -4.93, -8.79, -7.4, -6.4, -6.8, -6.94, -7.45, -7.56, -7.15, -7.56, -7.42, -5.59, -1.86, 0.45, 0.6, 0.0, 0.0, -1.58, -3.97, -6.71, -6.65, -4.4, -1.6, -0.0, 2.2, 3.64, 5.72, 6.7, 8.0, 9.11, 9.83, 9.54, 8.55, 6.98, 6.32, 5.38, 4.71, 6.2, 9.3, 9.45, 10.18, 11.28, 10.98, 10.52, 9.28, 8.38, 7.45, 5.86, 3.48, 0.0, -2.99, -3.23, -3.11, 5.06, 5.08, 4.45, 4.05, 4.08, 3.42, 3.42, 3.42, 3.42, 3.42, 3.0, 2.32, 1.84, 1.23, 0.0, -0.42, -0.6, -0.6, 0.0, 0.45, -0.45, -1.34, -2.24, -3.09, -3.53, -3.53, -3.53, -3.87, -3.98, -4.8, -3.32, -2.6, -3.13, -3.07, -3.13, -4.41, -4.73, -4.0, -4.46, -4.43, -3.79, -2.84, -2.4, -1.6, -1.6, -4.34, -7.74, -7.81, -6.8, -6.8, -8.14, -9.68, -9.6, -8.67, -8.79, -8.22, -7.52, -4.47, 0.63, 2.15, 1.47, -0.81, -3.83, -5.86, -8.4, -8.95, -7.76, -4.47, -0.89, -0.0, 2.53, 4.8, 6.28, 7.89, 9.39, 10.7, 10.49, 9.33, 7.54, 6.35, 5.69, 5.49, 6.36, 6.33, 7.9, 9.67, 11.2, 11.47, 10.79, 10.1, 9.4, 8.67, 7.28, 6.51, 4.22, 0.0, -1.55, -2.31, 5.7, 5.32, 5.09, 4.45, 4.46, 3.83, 4.08, 4.08, 4.08, 3.42, 3.0, 2.32, 2.16, 1.88, 1.6, 0.54, 0.0, 0.0, 0.0, -0.32, -0.89, -1.79, -3.13, -4.02, -4.44, -4.44, -4.88, -4.88, -4.92, -4.92, -4.8, -3.13, -5.81, -3.13, -3.13, -4.92, -4.92, -4.87, -4.66, -4.4, -4.09, -4.46, -3.79, -3.49, -2.84, -4.02, -3.13, -4.98, -5.4, -5.4, -5.94, -6.79, -6.0, -5.59, -7.47, -7.94, -9.67, -5.69, 0.0, 3.64, 2.31, -2.33, -5.72, -7.81, -8.65, -9.27, -9.56, -6.98, -4.47, 0.0, 1.6, 4.02, 6.21, 8.3, 9.6, 9.84, 9.84, 9.6, 8.05, 6.06, 6.06, 7.06, 7.27, 6.92, 5.68, 7.9, 9.9, 10.29, 9.4, 9.6, 9.68, 9.18, 8.48, 7.21, 5.6, 4.22, 2.41, 0.0, 5.7, 5.72, 5.08, 5.09, 4.45, 4.71, 4.46, 4.46, 4.46, 4.08, 2.77, 2.32, 2.32, 2.16, 2.2, 1.33, 0.54, 0.0, 0.0, -0.63, -1.2, -2.24, -3.13, -4.02, -4.47, -4.47, -4.92, -4.47, -4.47, -4.47, -4.47, -4.47, -4.02, -4.02, -4.02, -4.92, -5.7, -2.6, -5.26, -3.04, -2.6, -4.4, -3.79, -3.16, -2.4, -2.24, -1.9, -3.13, -4.02, -2.68, -4.47, -3.13, -1.6, -0.63, -0.95, -2.23, -7.13, -5.68, -0.74, 3.11, 2.97, -1.11, -5.43, -7.43, -8.38, -8.61, -8.61, -6.71, -5.46, -4.47, -1.6, 2.68, 6.79, 8.65, 8.85, 8.12, 7.9, 7.97, 7.44, 5.43, 4.8, 5.75, 6.54, 7.2, 7.54, 6.43, 7.12, 8.12, 7.59, 8.32, 9.2, 9.34, 8.4, 7.2, 6.4, 4.81, 4.01, 4.01, 5.95, 5.98, 5.32, 5.34, 5.09, 5.09, 4.83, 5.1, 4.46, 3.83, 3.42, 2.8, 2.32, 2.32, 2.36, 1.76, 1.13, 0.0, 0.0, -0.6, -1.2, -2.24, -3.13, -4.02, -4.47, -4.88, -4.89, -4.89, -4.89, -4.89, -4.92, -4.47, -3.58, -3.13, -3.58, -2.68, -3.58, -3.13, -4.92, -4.92, -2.24, -1.79, -2.24, -2.24, -2.24, -1.58, -1.9, -2.8, -1.9, -2.21, -3.58, -1.34, 0.45, 0.0, 0.45, 0.63, 0.0, -3.17, -3.29, 0.0, 1.49, 0.0, -2.12, -4.74, -3.16, -4.98, -7.02, -8.75, -8.8, -6.79, -2.53, 2.4, 7.08, 8.66, 8.05, 6.43, 5.63, 5.76, 5.43, 4.02, 4.66, 5.77, 6.71, 7.89, 8.82, 8.55, 6.14, 5.64, 6.42, 6.95, 7.68, 7.95, 6.96, 6.7, 6.9, 6.35, 5.3, 5.3, 6.34, 5.7, 5.72, 5.46, 5.08, 5.34, 5.09, 5.09, 4.71, 4.05, 3.4, 2.77, 2.29, 2.29, 2.32, 2.18, 1.76, 0.59, 0.0, -0.57, -1.2, -2.24, -3.13, -4.02, -4.92, -4.89, -5.33, -5.26, -5.7, -5.78, -5.34, -4.92, -4.02, -4.02, -2.24, -3.58, -5.36, -5.7, -3.58, -4.47, -3.58, -1.79, -3.13, -1.34, -2.68, -2.4, -2.68, -2.68, -1.9, -1.58, -0.0, 1.34, 0.89, 0.89, 0.89, 1.79, 2.8, 1.79, -1.2, -1.05, 0.0, 1.58, 2.24, -0.0, -1.6, -0.85, -1.34, -7.31, -10.21, -5.01, 0.0, 3.69, 6.21, 7.23, 6.28, 3.73, 2.28, 3.11, 3.22, 4.47, 6.26, 8.05, 9.26, 9.4, 10.43, 10.01, 7.03, 5.37, 5.21, 6.53, 7.96, 7.96, 6.98, 5.64, 6.73, 6.68, 5.59, 5.59, 6.08, 5.7, 5.98, 5.72, 5.72, 5.72, 5.08, 5.34, 5.09, 4.46, 3.4, 3.2, 2.96, 2.96, 2.77, 2.32, 2.18, 1.08, 0.0, 0.0, -0.95, -1.79, -3.13, -4.92, -5.34, -5.33, -5.33, -5.7, -6.16, -6.16, -6.16, -6.16, -6.16, -5.7, -5.7, -4.87, -5.81, -6.26, -4.92, -3.58, -2.12, -2.54, -2.24, -1.79, -3.13, -2.68, -2.68, -2.68, -2.24, -1.79, -0.0, -0.0, 1.34, 1.34, 1.34, 1.34, 1.58, 1.6, 1.13, 1.26, 1.79, 2.68, 3.13, 1.9, -0.0, -0.87, -0.0, -1.2, -5.26, -3.45, 0.0, 3.25, 4.01, 4.75, 3.14, 0.78, 0.0, 0.8, 3.11, 4.74, 6.39, 8.32, 9.66, 10.45, 10.55, 9.92, 9.27, 6.44, 5.89, 5.64, 6.42, 7.27, 6.95, 5.52, 5.49, 5.76, 5.78, 5.78, 6.33, 6.34, 5.7, 5.98, 5.98, 5.72, 5.72, 5.46, 5.09, 4.45, 4.05, 3.4, 2.92, 2.92, 2.92, 2.29, 2.32, 1.7, 0.57, 0.0, -0.6, -1.2, -3.09, -4.02, -4.47, -3.58, -5.33, -3.97, -4.41, -6.16, -6.51, -6.94, -6.94, -7.26, -7.26, -7.4, -7.58, -7.13, -5.31, -4.34, -3.04, -2.6, -2.24, -4.02, -3.13, -2.68, -2.68, -2.68, -2.4, -1.58, -0.0, -0.0, -0.0, -0.0, -0.0, -0.0, 1.9, 1.9, 2.4, 2.68, 3.13, 3.13, 3.13, -0.0, -0.99, -0.87, -0.0, -0.0, -0.0, 0.0, 1.4, 3.07, 3.07, 2.21, 0.76, 0.0, -1.56, -0.78, 0.77, 3.76, 6.9, 8.72, 9.39, 9.42, 9.66, 9.39, 9.6, 8.09, 7.08, 5.95, 5.52, 6.05, 6.42, 4.96, 4.07, 4.6, 5.41, 5.41, 6.33, 6.08, 6.34, 6.08, 6.08, 5.7, 5.72, 5.72, 5.08, 4.69, 4.03, 3.81, 3.37, 3.37, 2.89, 2.92, 2.44, 1.67, 0.0, 0.0, 0.0, -0.99, -3.07, -3.58, -4.87, -4.02, -3.58, -5.81, -6.23, -6.16, -6.61, -6.94, -6.97, -7.4, -7.4, -7.4, -7.13, -6.71, -6.23, -5.78, -5.33, -4.92, -4.47, -4.02, -3.13, -2.68, -2.68, -2.8, -2.8, -1.4, -1.4, -1.4, -1.6, -0.0, -0.0, 0.85, 2.53, 1.58, 0.89, 2.68, 2.68, 2.68, 2.24, -0.0, -0.87, -0.0, 0.76, 1.98, 1.6, 3.16, 5.59, 7.6, 8.49, 6.71, 2.8, 1.6, 0.0, -2.36, 0.78, 3.95, 6.17, 7.2, 7.82, 8.03, 7.93, 7.34, 5.78, 4.74, 7.15, 6.17, 5.18, 4.8, 5.41, 4.8, 3.53, 3.32, 3.91, 3.91, 6.58, 6.33, 6.34, 6.34, 6.34, 6.34, 5.7, 5.72, 5.08, 5.09, 4.45, 4.03, 3.56, 3.35, 3.35, 3.37, 2.73, 1.76, 0.58, 0.0, -0.65, -1.88, -2.91, -4.44, -5.7, -5.79, -5.81, -5.81, -5.81, -6.23, -6.61, -6.61, -7.06, -6.94, -7.06, -6.61, -6.68, -6.23, -5.81, -5.36, -5.36, -4.92, -4.92, -4.47, -3.58, -3.58, -3.13, -2.8, -3.2, -2.21, -1.4, -1.6, -1.6, -0.0, -0.0, 0.85, 1.4, 0.71, 1.34, 1.34, 1.79, 1.79, -0.0, -0.0, -0.0, -0.0, -0.0, 1.83, 1.83, 3.07, 5.43, 7.71, 9.39, 8.63, 5.43, 4.12, 0.0, -4.07, -2.4, 0.77, 3.87, 5.62, 6.31, 5.77, 5.52, 3.79, 2.23, 3.13, 6.54, 6.01, 6.14, 5.52, 4.6, 4.31, 3.53, 2.93, 2.82, 2.82, 6.31, 6.33, 6.33, 6.61, 6.34, 6.34, 6.08, 5.7, 5.32, 5.08, 4.44, 4.44, 4.0, 4.0, 4.0, 3.35, 2.89, 2.23, 1.12, 0.0, -1.73, -2.51, -3.39, -4.44, -5.33, -5.34, -5.81, -5.81, -5.81, -6.23, -6.16, -6.6, -6.61, -6.6, -6.16, -6.16, -5.78, -5.78, -5.33, -5.33, -4.89, -4.88, -4.44, -4.44, -3.98, -3.09, -3.58, -2.8, -3.2, -2.8, -1.4, -1.4, -1.4, -1.4, -0.0, -0.0, -0.0, -0.76, -1.9, -1.58, -0.0, -0.0, -0.0, 0.76, -0.0, -0.0, -0.0, -0.0, 0.88, 1.19, 2.4, 3.79, 3.04, 2.54, 2.31, 4.87, 5.02, -0.71, -5.03, -2.12, 1.6, 2.85, 3.11, 3.88, 4.03, 4.19, 4.15, 6.4, 8.58, 8.55, 7.94, 6.51, 5.78, 4.8, 3.44, 2.82, 3.19, 3.19, 6.7, 6.7, 6.58, 6.33, 6.71, 6.61, 6.34, 5.7, 5.7, 5.32, 5.08, 4.66, 4.0, 3.97, 3.97, 4.0, 3.35, 2.37, 1.63, 0.0, -1.23, -2.53, -3.6, -4.34, -4.77, -4.89, -5.36, -5.36, -5.81, -5.79, -6.23, -6.16, -6.16, -6.16, -5.7, -5.7, -5.24, -4.89, -4.88, -4.44, -4.44, -4.3, -3.87, -3.87, -3.39, -2.91, -3.39, -2.8, -2.8, -2.8, -2.8, -1.4, -1.4, -1.13, -0.0, -0.0, -0.79, -1.8, -1.0, -0.6, -0.0, -0.0, 0.87, 1.66, 0.88, 0.81, -0.0, -0.0, -0.0, -0.0, -0.0, -1.79, -0.63, 0.0, 0.0, 2.83, 7.15, 6.17, 0.0, -4.32, -1.39, 0.78, 0.79, 1.5, 3.16, 4.83, 6.14, 7.73, 9.31, 9.6, 9.2, 7.15, 6.23, 5.64, 4.22, 3.7, 3.61, 3.61, 6.96, 6.96, 6.31, 6.58, 6.71, 6.71, 6.34, 5.95, 5.7, 5.7, 5.06, 5.32, 4.42, 4.42, 4.63, 3.97, 3.52, 2.86, 2.23, 0.53, -0.55, -2.23, -3.35, -4.11, -4.34, -4.77, -4.89, -5.36, -5.36, -5.36, -5.78, -5.78, -5.78, -5.78, -5.33, -5.33, -4.88, -4.44, -4.34, -3.87, -3.87, -3.82, -3.39, -3.32, -3.07, -2.68, -3.39, -2.8, -2.8, -2.21, -2.21, -1.4, -1.4, -1.6, -1.27, -1.27, -0.87, -1.6, -1.4, -0.0, -0.0, -0.0, 0.99, 0.79, 0.73, 0.81, 0.81, 1.19, -0.0, -0.0, 0.89, -1.4, -0.45, -0.63, 0.0, 2.12, 6.4, 8.58, 6.87, 0.0, -3.42, -1.41, 0.0, 0.72, 1.56, 3.16, 5.72, 6.97, 7.2, 7.01, 7.9, 6.51, 6.28, 6.64, 5.64, 4.8, 4.87, 4.87, 6.96, 6.96, 6.7, 6.31, 6.97, 6.97, 6.33, 6.34, 5.95, 5.7, 5.7, 5.06, 5.06, 4.63, 4.63, 4.63, 3.97, 3.32, 2.86, 1.63, 0.0, -1.6, -2.79, -3.35, -4.11, -4.3, -4.44, -4.47, -4.92, -4.92, -5.36, -5.33, -5.33, -4.89, -4.88, -4.44, -4.44, -3.98, -3.87, -3.39, -3.39, -3.32, -2.91, -2.5, -2.5, -2.5, -2.5, -1.9, -1.9, -1.88, -1.61, -2.21, -2.21, -2.53, -2.84, -1.27, -2.48, -1.6, -1.6, -0.0, 1.4, 1.0, 0.85, -0.0, -0.0, -0.0, 0.81, 1.83, 1.8, 1.79, 2.54, 2.23, 4.02, 3.04, 3.04, 2.68, 4.41, 6.94, 9.75, 5.86, 0.71, -2.15, -0.72, 0.72, 1.62, 2.37, 3.99, 5.56, 4.71, 3.47, 3.07, 4.87, 5.64, 7.31, 7.27, 6.28, 5.52, 5.52, 6.96, 6.96, 6.96, 6.7, 6.7, 6.97, 6.97, 6.33, 6.08, 5.69, 5.69, 5.7, 5.29, 5.29, 4.6, 4.6, 3.94, 3.49, 2.83, 2.23, 0.58, -0.57, -2.23, -2.84, -3.35, -3.6, -3.87, -3.98, -4.02, -4.47, -4.47, -4.47, -4.44, -4.44, -3.98, -3.98, -3.97, -3.53, -3.39, -2.91, -2.91, -2.8, -2.15, -2.15, -1.9, -1.9, -1.9, -1.9, -1.61, -1.88, -1.88, -1.88, -2.84, -2.84, -2.84, -3.16, -2.48, -2.48, -2.84, -1.4, 1.6, 2.23, 0.76, -0.0, -0.0, -0.0, 0.88, 1.83, 2.98, 2.68, 2.97, 4.24, 4.41, 5.36, 5.31, 5.09, 5.32, 7.76, 8.95, 8.82, 6.79, 2.82, 0.0, -0.72, 0.0, 1.57, 3.09, 3.07, 2.39, 0.73, 0.75, 4.07, 6.95, 8.59, 8.57, 7.97, 6.28, 6.28, 6.96, 6.96, 6.96, 6.96, 6.96, 6.96, 6.97, 6.97, 6.33, 6.33, 6.33, 5.69, 5.69, 5.04, 5.04, 4.6, 4.6, 3.94, 3.49, 2.86, 1.1, 0.0, -1.27, -2.23, -2.79, -3.07, -3.32, -3.53, -3.53, -3.58, -3.58, -2.68, -2.63, -2.63, -2.6, -2.6, -2.17, -2.12, -1.86, -1.86, -1.58, -1.24, -1.24, -1.24, -1.24, -1.24, -1.24, -1.24, -1.24, -1.2, -1.88, -1.84, -2.51, -2.84, -2.21, -2.6, -3.72, -3.72, -2.86, -1.74, -0.0, 0.88, 1.3, 0.81, -0.0, -0.0, 0.88, 2.53, 3.2, 3.13, 3.47, 3.9, 4.57, 5.09, 4.47, 4.47, 6.7, 7.85, 8.67, 8.3, 8.0, 6.54, 4.14, 0.0, -1.41, 0.0, 2.3, 1.61, 0.0, 0.0, 0.0, 2.12, 6.33, 8.66, 9.17, 8.53, 7.9, 7.9, 6.94, 6.94, 6.96, 6.96, 6.96, 6.96, 7.24, 6.97, 6.97, 6.33, 6.33, 6.33, 5.69, 5.69, 5.26, 5.26, 5.26, 4.6, 3.94, 3.32, 2.23, 0.58, 0.0, -1.13, -1.84, -2.21, -2.5, -1.86, -1.7, -1.79, -1.79, -1.7, -1.7, -1.7, -1.6, -1.26, -1.26, -1.26, -1.26, -0.8, -0.8, -0.57, -0.0, -0.0, -0.0, -0.0, -0.0, -0.57, -1.24, -1.24, -1.9, -1.61, -2.23, -2.22, -2.48, -1.9, -2.53, -3.72, -2.86, -2.41, -0.87, -0.0, 0.88, 0.88, 0.79, -0.0, 1.8, 2.0, 2.24, 2.68, 3.13, 4.02, 5.09, 4.84, 3.35, 3.0, 4.92, 6.2, 7.9, 7.68, 7.69, 7.48, 7.31, 4.74, 1.39, 0.0, -0.71, -1.5, -0.79, 0.0, 0.79, 1.53, 5.28, 7.69, 9.3, 9.08, 8.44, 8.44, 6.94, 6.94, 6.96, 6.96, 6.96, 6.96, 7.33, 7.24, 6.97, 6.97, 6.33, 6.33, 6.33, 5.69, 5.69, 5.26, 5.26, 5.26, 4.6, 3.97, 2.86, 1.63, 0.59, 0.0, -0.51, 0.0, -0.54, -0.57, -0.95, -0.89, -0.89, -0.63, -0.95, -0.6, -0.6, -0.6, -0.6, -0.0, -0.0, -0.0, -0.0, -0.0, -0.0, -0.0, -0.0, -0.0, 0.54, 0.71, -0.0, -0.57, -0.71, -1.2, -1.33, -1.8, -1.58, -1.6, -1.13, -2.23, -2.53, -2.41, -1.8, -0.98, -0.0, -0.0, -0.0, 0.88, 1.55, 0.8, 0.0, 0.89, 2.24, 4.47, 5.81, 6.28, 5.59, 4.71, 3.02, 3.16, 4.68, 6.31, 7.35, 6.87, 7.23, 7.51, 6.13, 2.66, -0.73, -3.06, -1.53, 0.0, 1.6, 1.61, 1.43, 5.57, 7.84, 8.9, 9.02, 9.02, 6.94, 6.94, 7.22, 6.96, 6.96, 6.96, 7.33, 7.33, 7.24, 6.97, 6.97, 6.58, 6.33, 6.33, 5.92, 5.69, 5.69, 5.26, 4.6, 4.63, 4.0, 2.89, 2.96, 2.36, 1.23, 0.59, 0.0, 0.0, 0.0, 0.0, 0.0, -0.0, -0.0, -0.0, -0.0, -0.0, -0.0, -0.0, -0.0, -0.0, -0.0, 0.71, 0.71, 0.71, 0.71, -0.0, 0.8, 1.2, 0.65, -0.0, -0.0, -0.0, -0.61, -1.13, -1.27, -1.27, -0.59, -0.59, -1.8, -2.21, -2.84, -1.74, -0.0, -0.0, -0.81, -0.88, -0.0, -0.0, -0.0, 0.45, 1.26, 3.2, 6.07, 8.94, 9.33, 8.32, 5.69, 2.47, 2.44, 4.6, 6.31, 6.95, 6.87, 7.07, 7.31, 6.55, 4.87, 2.86, 1.4, 0.0, 0.72, 0.76, 0.68, 3.18, 5.81, 7.67, 7.84, 7.84, 6.94, 6.94, 6.94, 7.22, 6.96, 6.96, 7.6, 7.33, 7.33, 7.33, 6.97, 6.97, 6.58, 6.33, 6.33, 6.33, 5.69, 5.69, 5.04, 5.29, 4.42, 4.44, 4.05, 3.45, 2.84, 1.76, 1.16, 1.24, 1.26, 1.2, 0.89, 1.2, 1.2, 1.26, 1.26, 0.8, 0.8, 0.57, 0.57, 0.57, 0.71, 0.71, 0.71, 1.2, 0.65, -0.0, -0.0, 0.54, 0.65, -0.0, -0.0, -0.0, -0.0, -0.0, -0.7, -1.13, -0.59, -0.0, -0.59, -1.74, -2.23, -2.0, -0.95, -1.6, -2.68, -2.3, -1.66, -0.0, 1.6, 1.9, 0.85, 1.98, 4.6, 8.4, 11.15, 9.72, 6.94, 3.83, 3.07, 3.69, 4.87, 4.71, 4.71, 4.94, 5.86, 6.6, 7.69, 7.48, 4.66, 2.0, 1.23, 1.49, 1.33, 2.07, 3.47, 5.71, 6.36, 6.36, 6.94, 6.94, 6.94, 7.22, 7.22, 7.6, 7.6, 7.6, 7.6, 7.33, 7.33, 6.97, 6.97, 6.33, 6.33, 6.33, 6.33, 5.69, 5.69, 5.7, 5.72, 5.08, 5.1, 4.47, 3.84, 3.12, 2.23, 2.21, 1.6, 2.12, 2.24, 1.79, 2.12, 1.86, 1.86, 1.86, 1.24, 1.24, 1.24, 1.24, 1.24, 1.24, 1.24, 1.24, 1.2, 1.24, 0.71, 0.71, -0.0, -0.0, -0.0, -0.0, -0.0, -0.0, -0.0, -0.61, -0.61, -0.0, -0.0, -0.61, -1.58, -1.6, -0.0, -0.76, -1.6, -2.41, -2.53, -1.9, -0.0, 2.53, 1.98, 1.98, 3.2, 7.06, 10.6, 10.25, 4.24, 1.0, 2.23, 4.09, 4.09, 2.8, 2.6, 3.87, 4.6, 4.9, 6.28, 7.51, 7.21, 4.0, 3.07, 2.6, 2.68, 3.13, 3.07, 3.64, 4.71, 4.71, 6.94, 6.94, 6.94, 7.22, 7.6, 7.6, 7.6, 7.6, 7.6, 7.6, 7.33, 7.24, 6.97, 6.97, 6.71, 6.71, 6.33, 6.98, 6.34, 6.08, 5.72, 6.0, 5.72, 5.1, 4.75, 4.12, 3.73, 3.35, 3.07, 2.12, 2.68, 2.68, 2.63, 2.6, 2.4, 2.4, 2.4, 1.9, 1.9, 1.9, 1.9, 1.58, 1.24, 1.24, 1.24, 1.24, 0.71, 0.57, 0.57, 0.57, 0.71, -0.0, -0.0, -0.0, -0.0, -0.0, -0.0, -0.0, -0.0, -0.0, -0.65, -0.8, -0.0, -0.0, -0.87, -1.6, -1.74, -1.9, -0.0, 1.4, 2.41, 2.84, 3.13, 5.59, 9.8, 11.18, 5.36, 0.63, 1.2, 3.97, 5.81, 6.26, 5.81, 5.36, 6.26, 5.78, 5.99, 6.3, 6.79, 6.28, 3.83, 2.23, 2.24, 2.68, 4.47, 4.41, 4.24, 4.24, 6.94, 6.94, 7.33, 7.33, 7.6, 7.6, 7.6, 7.6, 7.6, 7.96, 7.33, 7.61, 6.97, 6.97, 6.71, 6.71, 7.32, 6.98, 6.7, 6.35, 6.35, 6.35, 6.34, 5.71, 5.65, 5.01, 4.65, 4.17, 4.11, 3.87, 3.53, 3.13, 3.13, 3.07, 3.07, 2.91, 2.91, 2.5, 2.5, 2.5, 2.15, 1.9, 1.9, 1.9, 1.86, 1.58, 1.26, 1.26, 0.8, 0.8, 0.57, 0.57, 0.71, -0.0, -0.0, -0.0, -0.0, -0.0, -0.0, -0.0, -0.0, -1.4, -0.0, -0.0, -0.99, -0.99, -1.9, -1.9, -0.0, -0.0, 1.98, 3.16, 4.47, 6.28, 9.33, 11.6, 10.62, 7.71, 6.11, 6.71, 7.6, 8.46, 8.46, 8.46, 8.46, 7.97, 7.87, 6.97, 7.01, 6.55, 5.16, 2.54, 1.6, 2.68, 4.02, 4.92, 4.87, 4.87, 7.33, 7.33, 7.33, 7.33, 7.6, 7.6, 7.6, 7.6, 7.96, 7.96, 8.24, 7.61, 7.33, 6.97, 6.98, 7.32, 7.32, 7.6, 7.3, 6.98, 6.97, 6.35, 6.34, 6.32, 6.23, 5.93, 5.75, 5.08, 5.09, 4.77, 4.44, 4.02, 3.58, 3.58, 3.53, 3.53, 3.39, 3.07, 3.07, 3.07, 2.68, 2.5, 2.15, 2.4, 2.23, 1.86, 1.58, 1.26, 1.26, 0.8, 0.8, 0.57, 0.71, 0.71, 0.57, 0.57, 0.71, 0.71, 0.54, -0.0, -0.65, -1.6, -1.6, -0.0, -0.0, -1.9, -2.4, -2.4, -1.26, -0.0, 0.71, 2.84, 5.7, 8.05, 9.7, 10.7, 11.52, 11.45, 10.95, 10.62, 9.39, 8.38, 7.76, 8.24, 8.67, 9.11, 8.67, 7.92, 7.11, 7.12, 7.11, 4.87, 3.47, 3.04, 3.51, 4.47, 5.36, 5.36, 7.33, 7.33, 7.33, 7.33, 7.6, 7.6, 7.6, 7.6, 7.96, 7.96, 8.24, 7.95, 7.61, 7.61, 7.32, 7.32, 7.6, 7.6, 7.3, 7.59, 6.97, 6.95, 6.92, 6.87, 6.79, 6.51, 6.28, 6.0, 5.57, 5.24, 4.89, 4.92, 4.47, 4.02, 4.02, 3.98, 3.82, 3.82, 3.6, 3.2, 3.07, 2.68, 2.91, 2.8, 2.4, 2.4, 1.86, 1.86, 1.26, 1.26, 0.8, 0.8, 0.57, 1.24, 0.71, 0.71, 0.71, 0.71, 0.54, -0.0, -0.0, -1.2, -1.4, -1.0, -0.0, -1.58, -2.0, -2.4, -1.0, -0.8, -0.0, 1.74, 5.2, 8.33, 9.36, 8.49, 8.49, 9.26, 10.25, 9.83, 8.49, 7.12, 5.64, 5.86, 6.36, 6.85, 6.98, 6.51, 6.21, 7.11, 8.01, 7.11, 4.85, 3.74, 3.74, 4.24, 5.36, 5.36, 7.33, 7.33, 7.33, 7.6, 7.6, 7.6, 7.6, 7.6, 7.96, 7.96, 8.24, 7.95, 8.24, 7.61, 7.61, 7.32, 7.3, 7.59, 7.59, 7.59, 7.55, 7.23, 7.17, 7.09, 6.79, 6.95, 6.8, 6.51, 6.47, 6.14, 5.78, 5.33, 4.92, 4.47, 4.47, 4.43, 3.98, 3.87, 3.87, 3.82, 3.39, 3.32, 2.91, 1.7, 2.91, 2.4, 2.6, 2.12, 1.7, 1.6, 0.95, 0.8, 0.8, 1.24, 1.24, 1.24, 0.71, 0.71, 0.65, 0.65, 0.65, -0.0, -1.2, -0.8, -0.0, -0.0, -1.58, -1.9, -1.2, -0.0, -0.0, 1.2, 3.48, 6.8, 8.82, 7.56, 5.77, 7.21, 8.91, 8.48, 6.85, 6.11, 5.64, 4.93, 3.82, 3.97, 4.02, 4.02, 4.92, 6.26, 7.56, 8.01, 6.66, 4.66, 3.83, 3.83, 4.4, 4.87, 7.33, 7.33, 7.33, 7.6, 7.6, 7.6, 7.96, 7.96, 7.96, 8.24, 8.24, 7.95, 8.24, 7.93, 7.93, 7.6, 7.6, 7.59, 7.86, 7.81, 7.81, 7.51, 7.8, 7.72, 7.61, 7.48, 7.2, 6.6, 6.36, 6.47, 6.16, 5.78, 5.34, 4.92, 4.92, 4.88, 4.44, 4.44, 3.98, 3.98, 3.39, 3.39, 2.91, 2.12, 3.32, 2.91, 2.63, 2.6, 2.17, 1.7, 1.6, 0.95, 0.8, 1.26, 1.24, 1.24, 1.24, 0.71, 0.65, 0.65, 0.65, -0.0, -0.0, -0.0, -0.0, -0.0, -0.0, -0.85, -0.99, -0.0, -0.0, -0.0, 1.6, 3.79, 7.67, 8.0, 5.59, 5.29, 5.86, 6.9, 6.25, 6.13, 6.79, 5.64, 3.58, 3.13, 3.97, 4.85, 5.36, 5.81, 7.15, 8.01, 8.01, 6.07, 4.4, 3.49, 4.46, 4.4, 7.33, 7.33, 7.6, 7.6, 7.96, 7.96, 7.96, 8.24, 8.24, 8.24, 7.95, 8.24, 8.24, 7.93, 8.22, 7.9, 7.9, 7.86, 8.15, 7.81, 8.08, 7.73, 7.44, 7.72, 7.61, 7.48, 7.31, 7.01, 6.79, 6.51, 6.6, 6.23, 5.78, 5.81, 5.36, 4.92, 4.92, 4.47, 4.44, 3.98, 3.53, 3.53, 3.32, 3.39, 2.12, 3.39, 3.51, 3.07, 3.07, 2.6, 2.12, 1.7, 1.26, 1.58, 1.86, 1.86, 1.58, 1.24, 1.49, 1.2, 1.2, 0.65, 0.71, -0.0, -0.0, -0.0, -0.0, -0.85, -1.74, -0.0, -0.0, -0.0, -0.0, 1.6, 4.74, 5.69, 4.46, 2.8, 2.24, 2.86, 3.14, 4.0, 5.64, 6.26, 5.32, 5.32, 6.22, 6.71, 7.15, 7.15, 8.01, 8.46, 8.46, 7.42, 6.02, 4.22, 3.84, 4.46, 7.6, 7.6, 7.6, 7.96, 7.96, 7.96, 8.24, 8.24, 8.24, 7.95, 8.24, 8.24, 7.93, 8.22, 8.22, 8.22, 8.19, 8.19, 8.15, 7.81, 8.08, 8.0, 7.64, 7.72, 7.61, 7.48, 7.31, 7.09, 7.21, 6.94, 6.61, 6.68, 6.23, 6.26, 5.81, 5.36, 5.36, 4.92, 4.47, 4.02, 3.58, 3.53, 3.53, 3.53, 3.82, 2.12, 3.82, 3.39, 3.39, 3.39, 2.91, 2.8, 2.4, 2.4, 2.4, 2.23, 2.23, 1.9, 1.9, 1.9, 1.61, 1.2, 1.2, -0.0, -0.0, -0.0, -0.0, -1.4, -1.6, -0.87, -0.0, -0.0, -0.0, -0.0, -0.0, 2.23, 1.58, 1.6, 1.79, 1.79, 1.79, 2.68, 6.11, 8.38, 8.38, 8.01, 8.05, 8.49, 8.94, 8.91, 9.26, 9.28, 9.26, 8.33, 7.42, 5.86, 4.84, 4.84, 7.6, 7.6, 7.6, 7.96, 7.96, 8.24, 8.24, 8.24, 7.95, 8.24, 8.24, 7.93, 7.93, 8.22, 8.22, 8.78, 8.45, 8.45, 8.38, 8.08, 8.08, 8.0, 7.9, 7.9, 7.76, 7.48, 7.71, 7.51, 7.26, 7.4, 7.07, 7.13, 6.68, 6.23, 6.26, 5.81, 5.36, 4.92, 4.47, 4.02, 4.02, 3.58, 3.53, 3.53, 3.53, 3.98, 3.82, 3.82, 3.82, 3.82, 3.6, 3.6, 3.07, 2.68, 2.91, 2.4, 2.15, 1.9, 2.21, 2.21, 1.88, 1.9, 1.24, -0.0, -0.0, -0.0, -0.0, -0.0, -0.87, -0.87, -0.0, -0.0, -1.6, -1.2, -1.79, 1.34, 1.34, 2.24, 4.24, 6.07, 6.35, 8.55, 10.53, 11.52, 10.8, 9.72, 8.49, 8.01, 8.36, 9.26, 9.72, 9.72, 8.82, 8.8, 8.14, 7.35, 7.35, 7.35, 7.6, 7.6, 7.6, 7.96, 8.24, 8.24, 8.24, 8.24, 8.24, 8.24, 8.24, 7.93, 8.22, 8.22, 8.22, 8.45, 8.45, 8.73, 8.73, 8.65, 8.55, 8.43, 8.27, 8.15, 8.4, 8.0, 7.81, 8.0, 7.69, 7.4, 7.4, 7.07, 7.06, 6.68, 6.23, 5.79, 5.34, 4.92, 4.47, 4.47, 4.02, 4.02, 4.02, 4.02, 3.98, 3.98, 3.97, 3.82, 3.82, 3.82, 3.6, 3.6, 3.39, 3.32, 2.91, 2.91, 2.8, 2.5, 2.5, 2.5, 2.5, 2.5, 1.9, 1.2, -0.0, -0.0, -0.0, -0.0, -0.87, -0.87, -0.87, -1.6, -1.98, -1.2, 0.89, 1.26, 3.95, 6.26, 8.82, 9.3, 10.9, 12.05, 13.29, 12.92, 11.58, 10.52, 9.36, 7.6, 6.98, 7.71, 8.36, 8.36, 8.36, 9.06, 8.91, 8.82, 8.82, 8.82, 7.6, 7.6, 7.96, 7.96, 8.24, 8.24, 8.56, 8.53, 8.53, 8.53, 7.93, 8.22, 8.22, 8.22, 8.22, 8.19, 8.45, 8.73, 8.73, 8.93, 8.55, 8.82, 8.68, 8.68, 8.51, 8.3, 8.22, 8.0, 7.74, 7.74, 7.4, 7.4, 7.06, 6.61, 6.6, 6.23, 5.78, 5.33, 4.92, 4.47, 4.47, 4.47, 4.02, 4.02, 4.02, 4.02, 3.53, 3.53, 3.53, 3.53, 3.39, 3.39, 3.53, 3.51, 3.07, 2.91, 2.8, 2.4, 2.4, 2.15, 2.5, 2.5, 2.5, 1.9, 1.9, -0.0, -0.0, -0.71, -1.6, -1.6, -1.8, -1.98, -2.21, -1.58, 0.45, 1.79, 4.02, 6.65, 8.3, 9.04, 10.18, 12.68, 13.45, 13.0, 11.58, 10.8, 10.52, 9.36, 6.55, 5.34, 6.36, 7.21, 8.14, 8.4, 8.91, 8.82, 8.82, 8.82, 7.6, 7.6, 7.96, 8.24, 8.24, 8.56, 8.85, 8.53, 8.53, 8.53, 8.5, 8.5, 8.22, 8.22, 8.19, 8.19, 8.45, 8.73, 8.38, 8.65, 8.55, 8.82, 8.68, 8.68, 8.51, 8.51, 8.3, 8.0, 8.0, 7.74, 7.69, 7.4, 6.94, 7.06, 6.6, 6.16, 5.78, 5.78, 5.36, 4.92, 4.92, 4.47, 4.47, 4.47, 4.02, 4.02, 4.02, 4.02, 3.58, 3.58, 3.53, 3.53, 3.53, 3.07, 3.07, 3.07, 2.91, 2.8, 2.4, 2.4, 2.15, 2.5, 2.5, 2.5, 1.24, -0.0, -0.0, -0.0, -1.74, -2.41, -1.98, -2.21, -2.0, -0.95, 0.89, 1.34, 3.13, 5.31, 6.4, 7.06, 8.27, 10.91, 13.11, 12.5, 11.8, 10.84, 11.09, 9.74, 5.81, 3.72, 5.4, 5.59, 6.79, 7.47, 7.89, 7.89, 7.89, 7.89, 7.96, 7.96, 8.24, 8.24, 8.24, 8.85, 8.53, 8.53, 8.53, 8.82, 8.82, 8.5, 8.5, 8.78, 8.78, 8.45, 8.45, 8.73, 8.38, 8.65, 8.55, 8.82, 8.43, 8.68, 8.91, 8.51, 8.3, 8.22, 8.0, 7.51, 7.69, 7.26, 6.94, 6.94, 6.61, 6.16, 6.23, 5.78, 5.78, 5.36, 4.92, 4.92, 4.92, 4.47, 4.47, 4.02, 4.02, 4.02, 4.02, 3.58, 3.58, 3.58, 3.58, 3.53, 3.07, 3.07, 2.91, 2.91, 2.4, 2.4, 2.4, 2.15, 2.5, 2.5, 1.9, 1.9, -0.0, -0.0, -1.4, -2.21, -2.53, -1.9, -1.26, 1.34, 0.89, 1.34, 2.54, 4.15, 4.84, 4.74, 5.69, 9.3, 12.39, 12.25, 11.73, 10.84, 9.81, 7.12, 2.68, 1.6, 2.54, 3.95, 4.66, 5.34, 5.6, 5.75, 5.75, 5.75, 7.96, 7.96, 8.24, 8.24, 8.24, 8.53, 8.53, 8.53, 8.82, 8.82, 8.82, 8.5, 8.78, 8.78, 8.78, 8.45, 8.73, 8.73, 8.38, 8.65, 8.65, 8.82, 8.43, 8.68, 8.68, 8.51, 8.0, 8.22, 7.81, 7.51, 7.51, 7.26, 7.37, 6.94, 6.61, 6.61, 6.23, 6.23, 5.78, 5.78, 5.36, 4.92, 4.92, 4.47, 4.47, 4.47, 4.47, 4.02, 4.02, 4.02, 4.02, 4.02, 3.58, 3.58, 3.09, 3.07, 3.07, 2.91, 2.91, 2.4, 2.4, 2.4, 2.4, 2.5, 1.9, 1.2, -0.0, -0.0, -0.0, -1.49, -1.74, -1.0, -0.0, -0.0, -0.0, 1.26, 1.9, 2.53, 3.48, 3.22, 3.9, 6.32, 9.27, 10.19, 11.06, 10.19, 7.6, 2.68, 0.89, 1.34, 2.12, 2.54, 3.47, 3.6, 3.83, 4.15, 4.15, 4.15, 8.24, 8.24, 8.24, 8.24, 8.24, 8.53, 8.53, 8.53, 8.82, 8.82, 8.82, 8.78, 8.78, 8.78, 8.78, 8.45, 8.73, 8.73, 8.38, 8.65, 8.65, 8.55, 8.43, 8.68, 8.28, 8.4, 8.0, 8.22, 7.81, 7.51, 7.51, 7.26, 7.4, 6.94, 7.06, 6.61, 6.61, 6.23, 6.23, 5.78, 5.34, 5.33, 4.92, 4.92, 4.92, 4.92, 4.47, 4.47, 4.02, 4.02, 4.02, 4.02, 4.02, 3.58, 3.13, 3.07, 3.07, 3.07, 3.07, 2.91, 2.4, 2.4, 2.4, 2.15, 1.9, 1.0, -0.0, -0.0, -0.0, -0.0, -0.85, -1.26, -0.0, -0.0, -0.0, -0.0, 1.0, 1.74, 1.8, 1.7, 2.6, 4.16, 5.49, 8.03, 9.89, 9.83, 1.34, 0.0, 1.2, 2.24, 1.79, 2.54, 2.54, 2.97, 3.2, 2.8, 2.8, 2.8, 8.24, 8.24, 8.24, 8.24, 8.53, 8.53, 8.53, 8.82, 8.82, 8.82, 9.12, 8.78, 8.78, 8.78, 8.78, 8.73, 8.73, 8.73, 8.65, 8.65, 8.93, 8.55, 8.43, 8.68, 8.28, 8.4, 8.0, 8.22, 7.81, 8.0, 7.51, 7.69, 7.26, 7.4, 6.97, 7.06, 6.61, 6.61, 6.23, 6.23, 5.78, 5.33, 5.33, 4.89, 4.89, 4.88, 4.47, 4.47, 4.02, 4.02, 4.02, 4.02, 4.02, 3.58, 3.58, 3.13, 3.07, 3.07, 3.07, 3.07, 2.8, 2.4, 2.4, 2.4, 1.9, 0.8, -0.0, -0.0, -0.0, -0.0, -0.0, -1.34, -1.34, -0.0, -0.0, -0.0, -0.0, -0.0, -0.0, 0.88, 1.83, 1.7, 3.22, 6.94, 10.28, 6.11, 0.63, -0.45, 0.45, 2.24, 2.68, 2.12, 0.95, 1.9, 2.54, 2.54, 2.54, 2.54, 8.24, 8.24, 8.24, 8.85, 8.53, 8.53, 8.53, 8.82, 8.82, 8.82, 9.12, 9.02, 9.02, 9.02, 9.3, 8.73, 8.73, 9.01, 8.65, 8.65, 8.93, 8.55, 8.43, 8.68, 8.28, 8.51, 8.51, 8.22, 8.22, 8.0, 8.0, 7.74, 7.69, 7.4, 7.4, 6.94, 7.06, 6.61, 6.6, 6.16, 5.78, 5.78, 5.33, 5.33, 4.89, 4.88, 4.44, 4.47, 4.47, 4.02, 4.02, 4.02, 4.02, 3.58, 3.58, 3.58, 3.13, 3.13, 3.07, 3.07, 2.63, 2.6, 2.4, 2.4, 1.86, 1.26, -0.0, -0.0, -0.0, -0.0, -0.0, 0.89, -1.34, -1.26, 0.89, 0.45, -0.0, -0.0, -0.0, -0.0, -0.0, 1.66, 2.68, 6.65, 11.89, 7.92, 1.34, -0.45, 0.0, 2.17, 3.51, 2.8, 1.74, 0.8, 1.26, 2.0, 2.0, 2.0, 8.56, 8.56, 8.56, 8.85, 8.85, 8.53, 8.53, 8.82, 8.82, 8.82, 9.08, 9.37, 9.02, 9.02, 9.3, 8.94, 8.73, 9.01, 8.65, 8.93, 8.93, 8.55, 8.43, 8.68, 8.68, 8.51, 8.51, 8.3, 8.22, 8.42, 8.0, 8.17, 7.69, 7.69, 7.4, 7.4, 6.94, 6.61, 6.6, 6.16, 6.14, 5.7, 5.26, 5.33, 4.89, 4.88, 4.44, 4.44, 4.47, 4.47, 4.02, 4.02, 4.02, 3.58, 3.58, 3.58, 3.13, 3.13, 3.13, 3.07, 2.63, 2.6, 2.6, 2.6, 1.86, 1.26, 0.95, 0.45, -1.34, -1.34, 0.89, 0.45, 0.89, -1.34, 0.0, 0.89, 0.45, -0.0, -1.0, -0.99, -0.0, 0.79, 2.68, 11.18, 12.05, 7.6, 1.26, -0.0, 0.4, 1.58, 3.6, 3.45, 1.49, 0.0, 0.0, 0.0, 0.0, 0.0, 8.56, 8.56, 8.85, 8.85, 8.85, 8.53, 8.53, 8.82, 8.82, 8.82, 9.37, 9.37, 9.02, 9.02, 9.3, 9.3, 8.94, 9.21, 9.21, 9.1, 9.1, 9.1, 8.82, 8.68, 8.68, 8.91, 8.51, 8.72, 8.3, 8.22, 8.0, 8.0, 7.74, 7.69, 7.26, 7.4, 6.94, 6.94, 6.6, 6.16, 6.16, 5.7, 5.7, 5.24, 4.89, 4.88, 4.88, 4.44, 4.44, 4.44, 4.43, 4.02, 4.02, 4.02, 3.58, 3.58, 3.58, 3.13, 3.13, 3.13, 2.68, 2.6, 2.6, 2.17, 2.12, 1.7, 1.2, 0.0, -0.95, -1.6, -1.26, -0.95, -1.34, -1.34, 0.89, 0.89, 0.45, -0.0, -1.2, -0.99, -0.87, -0.0, 5.75, 9.26, 8.38, 2.8, -0.65, -0.0, 0.63, 1.2, 3.48, 2.5, 0.0, -1.26, 0.0, 0.0, 0.0, 0.0, 8.56, 8.56, 8.85, 8.85, 8.85, 8.85, 8.82, 8.82, 8.82, 9.08, 9.37, 9.37, 9.02, 9.02, 9.3, 9.3, 8.94, 9.21, 9.21, 8.84, 9.1, 9.1, 8.96, 9.07, 8.68, 8.68, 8.51, 8.51, 8.72, 8.22, 8.22, 8.0, 7.58, 7.69, 7.26, 7.26, 6.94, 6.94, 6.47, 6.47, 6.16, 5.7, 5.7, 5.24, 5.24, 4.89, 4.88, 4.88, 4.44, 4.44, 4.44, 4.43, 4.02, 4.02, 4.02, 3.58, 3.58, 3.13, 3.13, 3.13, 3.13, 2.68, 2.68, 2.24, 2.24, 1.79, 1.79, 0.89, -0.95, -2.0, -1.58, -1.0, -1.26, -1.79, -1.34, 0.89, 0.89, -1.58, -1.9, -2.21, -1.74, -0.99, 2.6, 4.24, 3.51, 0.6, -1.49, -0.88, -0.0, 1.24, 2.07, 0.57, -1.34, -1.34, -0.8, -1.0, -1.0, -1.0, 8.56, 8.56, 8.85, 8.85, 8.85, 8.85, 8.82, 8.82, 9.08, 9.08, 9.37, 9.37, 9.02, 9.3, 9.3, 9.3, 8.94, 9.21, 9.21, 9.21, 9.1, 9.1, 9.35, 8.96, 9.07, 8.68, 8.68, 8.51, 8.51, 8.22, 8.22, 8.0, 8.0, 7.51, 7.26, 7.26, 6.79, 6.94, 6.47, 6.47, 6.04, 5.7, 5.7, 5.24, 5.24, 5.24, 4.89, 4.89, 4.88, 4.88, 4.44, 4.44, 4.43, 4.02, 4.02, 4.02, 3.58, 3.58, 3.58, 3.13, 3.13, 3.13, 2.68, 2.68, 2.24, 2.24, 2.24, 1.79, 0.95, 0.0, -2.0, -2.4, -2.0, -1.26, -0.95, 0.0, -0.89, -2.0, -2.4, -2.4, -2.54, 0.89, 0.89, 1.7, 2.12, 0.63, -1.26, -2.11, -0.7, -0.63, -1.24, -1.7, -1.34, -0.89, -1.0, -1.9, -1.9, -1.9, 8.56, 8.56, 8.85, 8.85, 8.85, 9.13, 9.42, 9.08, 9.08, 9.08, 9.37, 9.37, 9.02, 9.3, 9.3, 9.3, 8.94, 9.21, 9.21, 9.21, 9.1, 9.1, 9.35, 8.96, 9.07, 8.68, 8.68, 8.51, 8.51, 8.22, 8.22, 7.81, 7.93, 7.51, 7.09, 7.21, 6.79, 6.79, 6.47, 6.47, 6.04, 5.99, 5.7, 5.7, 5.24, 5.24, 5.24, 5.33, 4.89, 4.89, 4.88, 4.44, 4.44, 4.47, 4.47, 4.02, 4.02, 3.58, 3.58, 3.58, 3.58, 3.13, 3.13, 2.68, 2.68, 2.24, 2.24, 2.24, 1.7, 0.0, -0.95, -2.0, -1.58, -1.26, 0.0, 0.0, 0.0, -1.34, -1.34, -1.79, -2.24, -0.95, 0.71, 2.21, 3.49, 2.15, -0.45, -2.79, -2.73, -3.04, -4.41, -4.41, -1.79, -0.95, -1.58, -2.6, -2.6, -2.6, 8.56, 8.56, 8.85, 8.85, 9.13, 9.13, 9.42, 9.08, 9.08, 9.37, 9.37, 9.37, 9.02, 9.3, 9.3, 9.3, 9.21, 9.21, 9.21, 9.21, 9.1, 9.1, 9.35, 8.96, 9.07, 8.68, 8.68, 8.51, 8.4, 8.0, 8.22, 7.81, 7.71, 7.51, 7.09, 7.01, 6.79, 6.79, 6.3, 6.47, 6.04, 6.04, 5.99, 5.7, 5.7, 5.26, 5.24, 5.33, 5.33, 5.33, 4.89, 4.88, 4.88, 4.47, 4.47, 4.47, 4.47, 4.02, 4.02, 3.58, 3.58, 3.58, 3.58, 3.13, 3.13, 2.68, 2.24, 2.68, 2.24, 1.6, 0.0, 0.0, -0.8, 0.0, 0.0, 0.89, 0.89, 0.89, 0.45, 0.89, -1.79, -1.26, 0.85, 3.48, 5.82, 5.46, 1.49, -0.89, -2.86, -2.23, -3.13, -4.24, -2.86, -1.74, -2.6, -2.98, -2.98, -2.98, 8.85, 8.85, 8.85, 8.85, 9.13, 9.42, 9.42, 9.08, 9.08, 9.37, 9.37, 9.37, 9.02, 9.3, 9.3, 9.3, 9.21, 9.21, 9.21, 9.21, 9.1, 9.1, 9.1, 8.96, 9.07, 8.68, 8.68, 8.28, 8.4, 8.0, 8.0, 7.71, 7.71, 7.31, 7.51, 7.01, 6.6, 6.79, 6.3, 6.3, 6.47, 6.04, 5.99, 6.14, 5.7, 5.7, 5.7, 5.7, 5.33, 5.33, 5.33, 4.88, 4.88, 4.88, 4.88, 4.47, 4.47, 4.47, 4.02, 4.02, 4.02, 4.02, 3.58, 3.58, 3.13, 3.13, 2.68, 2.68, 2.68, 2.17, 1.6, 0.0, 0.0, 0.0, 0.0, 0.89, 0.89, 0.89, 1.34, 1.34, 0.89, 0.0, 1.2, 4.6, 7.35, 8.4, 6.94, 1.86, -0.45, -2.24, -2.68, -3.74, -3.49, -3.16, -3.22, -2.98, -2.98, -2.98, 8.85, 8.85, 8.85, 8.85, 9.13, 9.42, 9.42, 9.08, 9.08, 9.37, 9.37, 9.37, 9.3, 9.3, 9.3, 9.3, 9.21, 9.21, 9.21, 9.21, 9.1, 9.1, 9.1, 8.96, 8.82, 8.68, 8.68, 8.28, 8.4, 8.0, 8.0, 7.71, 7.71, 7.31, 7.51, 7.01, 7.01, 6.79, 6.79, 6.3, 6.47, 6.47, 6.04, 6.16, 6.14, 5.7, 5.7, 5.7, 5.7, 5.34, 5.33, 4.89, 4.89, 4.89, 4.88, 4.88, 4.88, 4.44, 4.44, 3.98, 4.02, 4.02, 4.02, 3.58, 3.58, 3.58, 3.13, 2.6, 2.68, 2.6, 2.6, 1.58, 0.0, 0.0, 0.0, 0.0, 0.0, 0.89, 0.89, 1.34, 0.89, 0.0, 1.74, 4.6, 7.71, 9.54, 9.7, 7.89, 3.32, 0.0, -2.12, -3.32, -3.45, -2.84, -2.21, -0.8, -0.8, -0.8, 8.85, 8.85, 8.85, 9.13, 9.13, 9.42, 9.42, 9.08, 9.08, 9.37, 9.37, 9.37, 9.3, 9.3, 9.3, 9.3, 9.21, 9.21, 9.21, 9.21, 9.1, 9.1, 9.1, 8.82, 8.82, 8.68, 8.68, 8.15, 8.15, 8.0, 8.0, 7.48, 7.71, 7.31, 7.31, 7.01, 7.01, 6.79, 6.79, 6.72, 6.47, 6.47, 6.47, 6.04, 6.16, 6.14, 5.7, 5.7, 5.7, 5.7, 5.33, 5.33, 5.33, 5.33, 4.89, 4.89, 4.88, 4.88, 4.44, 4.44, 4.43, 3.98, 3.98, 4.02, 4.02, 3.58, 3.53, 3.07, 2.63, 2.63, 3.07, 2.8, 1.9, 1.9, 0.0, 1.0, 1.0, 0.89, 0.89, 0.89, 1.79, 1.0, 1.98, 4.22, 7.21, 9.26, 9.81, 9.36, 8.46, 5.59, 2.23, -0.8, -1.58, -0.8, 0.0, 2.24, 2.24, 2.24, 8.85, 8.85, 8.85, 9.13, 9.13, 9.42, 9.42, 9.08, 9.08, 9.37, 9.37, 9.37, 9.3, 9.3, 9.3, 9.3, 9.21, 9.21, 9.21, 9.21, 9.1, 9.1, 9.1, 8.82, 8.82, 8.68, 8.68, 8.15, 8.15, 8.0, 8.0, 7.48, 7.71, 7.31, 7.31, 7.01, 7.01, 6.79, 6.79, 6.72, 6.47, 6.47, 6.47, 6.04, 6.16, 6.14, 5.7, 5.7, 5.7, 5.7, 5.33, 5.33, 5.33, 5.33, 4.89, 4.89, 4.88, 4.88, 4.44, 4.44, 4.43, 3.98, 3.98, 4.02, 4.02, 3.58, 3.53, 3.07, 2.63, 2.63, 3.07, 2.8, 1.9, 1.9, 0.0, 1.0, 1.26, 0.89, 0.89, 0.89, 1.79, 2.0, 2.53, 4.6, 6.79, 9.26, 10.25, 9.81, 9.39, 8.94, 7.6, 5.36, 4.02, 3.58, 4.02, 4.92, 4.92, 4.92]}, {"header": {"dx": 0.06612293990616946, "dy": 0.0552356325346848, "nx": 98, "ny": 59, "la1": 35.046912555036876, "la2": 31.78801023549047, "lo1": -121.43107172385933, "lo2": -114.95102361305473, "refTime": "2026041714", "parameterCategory": 1, "parameterNumber": 3}, "data": [-4.47, -3.98, -3.82, -3.7, -3.7, -3.6, -3.07, -2.5, -1.61, -1.61, -2.23, -2.86, -2.15, -1.84, -1.27, -2.2, -2.35, -1.52, -1.03, -0.0, -0.0, 1.05, 2.3, 2.51, 2.53, 2.21, 1.9, 1.86, 1.26, 0.63, 0.45, 0.45, 0.0, 0.0, 0.0, 0.63, 0.8, 1.34, 1.79, 1.24, 0.61, 0.73, -0.0, -0.0, -1.18, -1.41, -3.16, -3.84, -4.46, -4.15, -4.15, -3.04, -2.23, -2.6, -2.21, -2.53, -2.21, -1.86, -1.6, -1.79, -1.34, -1.34, -0.95, -0.95, 0.0, 0.0, 0.65, 1.6, 2.07, 2.53, 2.4, 1.7, 1.55, 0.81, 0.0, 0.0, 0.0, -0.69, -1.73, -3.11, -3.22, -2.6, -2.4, -2.53, -2.3, -1.49, -0.87, 0.0, 0.0, -3.22, -6.07, -8.01, -9.36, -9.7, -10.62, -11.06, -11.06, -11.06, -4.92, -4.47, -3.98, -3.87, -3.87, -3.7, -3.2, -2.5, -1.9, -1.61, -2.53, -1.9, -1.9, -1.24, -0.8, -0.87, -1.27, -1.03, -0.96, -0.76, -0.0, -0.0, 0.96, 1.8, 1.88, 1.9, 1.9, 1.58, 1.24, 0.57, -0.0, -0.0, 0.0, 0.0, -0.0, 0.95, 1.2, 1.7, 1.86, 1.2, 0.79, 1.1, -0.0, -1.55, -2.9, -3.9, -4.11, -4.46, -4.46, -4.4, -3.83, -3.83, -3.83, -3.83, -3.14, -2.84, -2.21, -1.86, -1.6, -1.34, -1.34, -1.34, -0.45, 0.0, 0.0, 0.0, 0.65, 2.41, 3.16, 3.07, 3.35, 3.07, 1.55, 0.81, 0.0, -0.76, -0.82, -0.69, -1.73, -3.11, -3.22, -2.6, -2.4, -2.53, -2.3, -1.49, -0.87, 0.0, 0.0, -3.22, -6.07, -8.01, -9.36, -9.7, -10.62, -11.06, -11.06, -11.06, -5.26, -4.44, -4.02, -3.98, -3.87, -3.87, -3.39, -2.91, -2.15, -2.15, -3.14, -4.0, -2.15, -1.26, -0.0, -0.0, -0.0, -0.0, -0.0, -0.0, -0.76, -1.03, -0.0, -0.0, 0.99, 1.9, 1.9, 1.58, 1.24, 0.71, -0.0, -0.0, -0.0, 0.71, 1.4, 1.98, 2.15, 2.5, 2.5, 2.07, 0.69, -0.0, -2.26, -3.09, -4.83, -5.3, -5.06, -5.09, -5.46, -5.82, -5.82, -5.43, -5.34, -4.8, -3.49, -3.16, -2.15, -1.9, -1.6, -1.2, -1.34, -0.89, 0.0, 0.0, 0.0, 0.6, 1.26, 2.21, 4.22, 4.8, 4.84, 4.11, 2.6, 0.82, 0.0, -1.6, -3.33, -1.55, -2.9, -4.16, -4.01, -4.01, -4.01, -3.22, -2.3, -1.49, 0.0, 0.0, -0.88, -4.03, -6.01, -5.82, -3.95, -2.24, -3.47, -5.59, -8.14, -9.11, -5.99, -5.24, -4.44, -4.02, -3.98, -3.98, -3.98, -3.39, -2.91, -3.07, -3.39, -4.6, -2.91, -2.4, -1.26, -0.0, -0.0, 0.66, 0.76, 0.7, -0.0, -0.0, -0.0, -0.0, -0.0, 0.85, 1.2, 1.24, 1.26, 0.95, 0.6, 0.57, 0.61, 3.22, 4.47, 4.19, 4.43, 4.29, 2.5, 1.49, -0.0, -0.7, -1.41, -2.4, -3.64, -4.65, -5.43, -5.09, -5.82, -6.07, -5.69, -5.82, -4.84, -3.84, -2.79, -2.3, -2.41, -1.49, -1.6, -1.34, -1.34, -0.89, 0.0, 0.0, 0.0, 0.0, 0.89, 1.7, 2.17, 3.07, 4.15, 3.07, 2.47, 1.45, 0.0, -0.79, -3.2, -5.69, -4.83, -5.69, -5.36, -5.82, -5.82, -4.81, -3.22, -1.49, 0.0, -0.82, -3.4, -5.76, -6.32, -5.15, -2.53, 0.0, 1.26, -1.74, -5.34, -7.71, -6.3, -5.57, -4.8, -4.44, -4.02, -4.02, -3.98, -3.53, -3.53, -3.13, -3.58, -3.98, -2.91, -2.5, -1.9, -0.54, 0.53, 1.84, 2.07, 1.84, 1.49, 1.24, 1.24, 1.24, 1.4, 0.99, 1.49, 1.26, 1.2, 1.34, 1.34, 1.49, 2.35, 2.31, 2.26, 1.98, 2.32, 2.53, 1.2, -0.71, -1.41, -0.0, 0.7, -0.0, -0.0, -1.49, -1.49, -1.9, -2.21, -3.49, -3.79, -3.79, -3.07, -2.3, -1.66, -1.49, -1.6, -1.49, -1.2, -0.89, -1.34, -0.89, 0.0, -0.0, -0.0, -0.0, -0.0, -0.0, -0.0, 0.0, 0.0, 0.0, 0.0, 0.74, 0.0, 0.0, -1.58, -4.03, -4.83, -5.69, -5.38, -6.44, -6.94, -5.75, -4.15, -4.38, -4.19, -5.3, -6.88, -8.03, -6.44, -5.15, -3.16, -1.34, -0.0, -2.84, -5.09, -6.98, -6.6, -5.81, -5.51, -4.8, -4.44, -4.02, -4.02, -4.02, -3.58, -4.02, -3.53, -3.13, -2.0, -2.4, -1.9, -0.71, 1.24, 2.15, 2.5, 1.9, 1.26, 1.2, 1.34, 2.24, 2.24, 1.6, 1.26, 0.6, -0.0, 0.89, 1.79, 1.88, 2.35, -0.0, -0.67, -0.74, -0.0, -0.0, 0.0, -1.79, -3.35, -2.13, -0.0, -0.0, -0.0, -0.0, -0.0, 0.0, -0.0, -0.85, -2.41, -2.07, -2.07, -2.0, -1.55, -1.33, -1.4, -1.74, -1.26, -1.2, -0.89, -0.89, -0.0, -0.54, -1.49, -1.26, -1.2, -1.86, -3.83, -5.59, -6.26, -5.75, -4.46, -3.11, -3.09, -2.35, -2.47, -3.27, -4.16, -4.83, -5.69, -7.07, -8.4, -8.33, -7.42, -8.36, -9.75, -9.84, -9.9, -8.63, -7.47, -6.94, -5.09, -2.6, -2.68, -5.2, -6.51, -6.51, -6.8, -6.1, -5.81, -5.09, -4.77, -4.44, -4.02, -4.02, -4.02, -3.98, -3.98, -2.68, -1.2, -1.2, -0.95, -0.0, 1.2, 1.79, 1.2, 0.4, -0.0, 0.0, 0.0, 0.45, 0.89, 0.89, -0.0, -0.95, -0.95, 0.6, 2.6, 3.48, 2.8, 0.78, -0.69, -1.4, -2.4, -2.0, -1.2, -1.33, -2.54, -6.44, -6.9, -5.46, -4.43, -1.49, -0.6, 0.0, 0.0, -2.84, -2.4, -2.15, -1.6, -1.49, -1.41, -1.49, -1.49, -1.49, -1.24, -1.2, -0.89, -0.0, -0.0, -1.4, -3.16, -3.45, -3.47, -4.41, -7.21, -9.58, -10.7, -10.73, -10.73, -10.45, -9.2, -8.32, -5.38, -3.27, -3.09, -5.64, -6.53, -8.68, -10.01, -11.52, -12.04, -12.33, -12.58, -11.62, -11.37, -10.02, -9.72, -8.38, -5.09, -2.53, -4.54, -7.21, -7.42, -6.98, -7.31, -6.4, -6.1, -5.4, -5.09, -4.77, -4.44, -4.44, -4.44, -4.34, -4.44, -3.58, -1.79, -0.89, 0.0, 0.6, 1.26, 1.26, 0.6, 0.63, 0.45, 0.89, 0.0, -0.45, -0.45, -0.45, -1.6, -1.9, -0.71, 0.99, 3.22, 3.22, 2.16, -0.0, -1.35, -2.8, -4.37, -5.69, -4.34, -3.93, -3.49, -3.9, -8.91, -11.17, -8.75, -7.47, -3.72, -1.26, -0.63, -3.2, -1.26, -1.9, -0.71, -0.0, -0.71, -0.57, -0.6, -0.0, -0.6, -0.95, -0.0, -0.0, -0.0, -0.71, -1.74, -2.86, -3.04, -2.24, -3.58, -5.81, -6.26, -6.71, -8.94, -10.25, -10.16, -9.62, -8.55, -5.59, -4.83, -5.41, -7.09, -9.21, -10.09, -12.01, -15.13, -16.03, -14.47, -10.95, -6.98, -6.71, -8.05, -6.67, -4.81, -4.74, -5.82, -7.89, -8.01, -8.01, -7.48, -6.95, -6.28, -5.6, -5.31, -5.09, -4.6, -4.77, -4.77, -4.66, -4.8, -4.92, -3.13, -2.68, -1.26, 0.0, 0.57, 1.24, 1.24, 1.7, 2.24, 2.6, 1.7, 0.0, -0.89, -1.34, -1.86, -1.49, -0.0, 0.76, 1.08, -0.0, -0.0, -1.08, -1.84, -2.15, -4.43, -7.28, -7.74, -5.73, -4.11, -1.49, -2.54, -8.15, -10.02, -9.23, -8.53, -6.52, -3.45, -2.12, -3.2, -0.95, -0.0, -0.0, -0.0, -0.0, -0.0, -0.0, -0.0, -0.0, -0.0, -0.0, -0.0, -0.0, -0.0, -0.0, 0.63, 1.6, 2.23, 1.74, 0.76, 0.0, -0.81, -1.49, -2.84, -4.84, -7.35, -8.24, -8.3, -7.59, -6.79, -7.85, -8.59, -9.78, -12.22, -14.15, -12.5, -5.36, 0.8, -0.0, -2.23, -4.46, -5.38, -7.41, -8.4, -8.8, -8.9, -8.9, -7.76, -7.48, -6.8, -6.1, -5.6, -5.31, -4.9, -5.09, -5.09, -5.31, -5.57, -5.57, -6.26, -6.23, -3.07, -1.34, 0.0, 0.0, 0.89, 1.34, 1.58, 1.86, 1.6, 0.63, -0.6, -1.58, -1.26, -0.0, -0.0, -0.0, -0.0, -0.0, -0.0, -0.98, -2.99, -2.2, -2.53, -4.84, -6.99, -6.26, -4.24, -2.5, -0.6, -1.26, -7.02, -9.17, -8.76, -8.85, -7.69, -4.8, -1.6, -0.0, 0.0, 0.0, -0.0, 0.6, 0.99, 0.6, -0.0, -0.0, -0.0, -0.0, -0.0, 0.6, 1.24, 3.83, 4.66, 4.92, 5.64, 5.43, 4.74, 3.55, 2.72, 1.36, 0.0, -1.45, -4.83, -8.06, -9.14, -9.52, -8.58, -7.85, -6.36, -7.15, -7.22, -6.98, -5.09, 0.0, 3.49, 2.21, 0.0, -2.23, -6.8, -10.15, -11.62, -11.52, -10.7, -10.25, -8.15, -7.23, -6.95, -6.28, -6.0, -5.6, -5.4, -5.31, -5.31, -5.6, -5.81, -5.81, -5.7, -4.92, -2.91, -1.7, -1.34, -0.89, -0.45, -0.0, 0.6, -0.0, -0.0, -0.0, -0.0, -0.0, -0.0, 0.0, -0.0, -1.58, -0.85, -0.0, -0.0, -0.61, -2.11, -4.19, -4.29, -4.98, -6.07, -6.07, -4.47, -3.13, -0.63, 0.0, -3.49, -5.76, -5.95, -6.31, -6.24, -4.65, -2.3, -0.0, -0.0, -0.0, 0.79, 1.47, 2.07, 1.24, 0.63, -0.45, -1.34, -1.34, -0.95, -0.0, 1.49, 3.79, 4.84, 5.75, 5.77, 5.82, 5.77, 5.0, 4.94, 2.82, 1.36, -0.71, -3.44, -5.76, -7.68, -8.67, -10.0, -9.56, -8.57, -5.77, -5.09, -2.89, -1.43, 0.0, 0.73, 0.67, 0.0, -1.66, -4.38, -8.14, -12.8, -13.96, -12.86, -11.52, -8.27, -7.61, -7.07, -6.56, -6.28, -5.75, -6.0, -6.0, -5.75, -6.0, -6.1, -5.81, -5.09, -3.98, -3.09, -1.49, -1.2, -1.34, -0.45, 0.0, -0.0, -0.0, -0.0, -0.0, -0.0, -0.0, -0.0, 0.8, -0.0, -0.85, -1.49, -0.8, -0.0, 0.53, -0.59, -2.98, -4.12, -3.84, -5.46, -5.6, -4.24, -2.4, -0.63, 0.0, -0.0, -2.11, -3.3, -3.17, -3.2, -3.4, -3.09, -1.49, -0.76, -0.0, 0.76, 1.65, 1.6, 1.24, 0.0, -1.2, -2.24, -2.68, -1.58, -0.66, -0.0, 0.83, 2.2, 3.2, 4.02, 4.4, 5.09, 5.0, 5.21, 4.0, 2.28, 0.0, -2.39, -3.88, -5.59, -6.32, -7.69, -8.63, -9.3, -6.97, -5.09, -3.39, -2.82, -2.06, -2.1, -1.43, -1.4, -1.49, -2.2, -3.48, -7.6, -11.23, -12.09, -11.66, -8.43, -7.9, -7.23, -6.95, -6.41, -6.28, -6.28, -6.28, -6.28, -6.28, -6.0, -5.81, -5.51, -4.3, -2.68, -1.27, -1.2, -1.2, -0.89, 0.0, -0.0, -0.0, -0.0, 0.51, 0.59, 0.59, 0.59, 1.11, 0.57, -1.07, -1.33, -0.65, -0.0, 0.61, -0.0, -0.73, -1.35, -2.0, -2.98, -4.43, -3.79, -2.84, -1.2, -0.8, -0.8, -1.08, -2.21, -3.35, -3.4, -3.4, -3.7, -3.46, -3.69, -3.61, -3.3, -3.52, -1.07, -0.0, -0.63, -2.86, -5.16, -4.85, -2.3, -2.2, -3.06, -4.07, -2.12, -0.0, -0.0, 0.89, 2.53, 2.4, 2.35, 1.58, 0.0, -0.76, -2.25, -3.11, -4.8, -5.64, -5.69, -7.06, -9.19, -10.28, -7.9, -6.45, -5.6, -5.02, -4.32, -3.61, -2.89, -2.17, -2.18, -1.63, -2.53, -5.36, -6.98, -10.02, -8.55, -8.27, -7.35, -7.23, -6.7, -6.56, -6.41, -6.41, -6.41, -6.28, -6.0, -5.81, -5.4, -5.02, -3.2, -2.17, -1.34, -1.34, -0.89, -0.32, -0.0, -0.0, -0.0, -0.0, 0.55, 0.55, 0.61, 0.61, -0.0, -0.0, -1.07, -0.0, -0.0, -0.0, -0.0, -0.0, -0.0, -0.7, -1.55, -2.2, -2.73, -2.98, -3.79, -4.65, -2.84, -0.0, -0.0, -1.99, -2.16, -2.16, -1.98, -2.26, -3.0, -4.47, -6.4, -7.22, -6.45, -5.69, -5.81, -5.09, -7.71, -8.17, -6.87, -6.69, -7.08, -7.73, -6.62, -5.59, -5.59, -2.68, -0.8, 0.0, -0.78, -3.32, -4.8, -5.3, -5.3, -4.8, -4.83, -5.3, -5.3, -5.49, -7.27, -7.61, -10.65, -10.28, -8.37, -7.12, -6.04, -4.8, -3.46, -3.53, -2.83, -2.4, -2.8, -2.53, -3.22, -6.26, -8.55, -8.0, -7.9, -7.35, -7.23, -7.07, -6.7, -6.7, -6.7, -6.41, -6.1, -5.81, -5.81, -5.4, -4.4, -3.32, -2.17, -1.34, -1.34, -0.63, -0.6, -0.0, -0.0, -0.0, -0.0, -0.0, -0.0, -0.0, -0.0, -0.0, -0.0, -0.0, -0.0, -0.0, -0.0, -0.0, -1.14, -0.65, -1.05, -0.76, -0.65, -2.2, -3.79, -3.16, -1.2, -0.0, 1.9, -0.0, -0.0, -0.0, -0.0, -0.0, -0.8, -0.63, -0.95, -1.49, -6.11, -10.65, -11.15, -9.33, -8.91, -8.87, -9.77, -10.62, -10.47, -9.69, -9.69, -8.94, -7.64, -5.59, -3.2, -3.58, -5.1, -7.08, -8.85, -8.93, -7.9, -7.18, -4.96, -3.11, -2.4, -2.47, -2.9, -3.6, -4.8, -11.26, -10.29, -8.93, -7.59, -6.05, -4.6, -4.31, -4.2, -3.6, -3.2, -4.01, -4.81, -4.81, -8.93, -8.37, -8.27, -7.72, -7.35, -7.35, -6.98, -6.79, -6.7, -6.56, -6.28, -5.6, -5.81, -5.81, -5.31, -4.11, -3.39, -2.68, -1.79, -1.2, -0.6, -0.0, -0.0, -0.0, -0.0, 0.61, 0.54, 0.54, 0.54, 0.54, -0.0, -0.0, -0.0, -0.0, -0.0, -0.0, -0.0, -0.0, -0.0, -0.0, -0.0, -0.0, -0.0, -0.0, -0.0, 1.58, 1.9, 1.4, 1.9, 2.21, -0.0, -0.0, 0.0, 0.0, 0.0, 0.63, -0.89, -7.4, -12.08, -10.73, -7.45, -6.71, -6.36, -4.74, -3.16, -2.99, -6.24, -7.65, -4.4, -2.26, -4.22, -7.21, -8.65, -10.24, -11.28, -11.26, -9.65, -7.41, -3.11, 0.0, 1.55, 0.72, 0.0, -1.58, -3.21, -3.88, -7.68, -8.06, -8.03, -6.95, -6.14, -5.78, -4.87, -4.46, -4.14, -4.94, -6.06, -6.06, -8.65, -8.55, -8.0, -7.64, -7.9, -7.72, -7.35, -7.35, -7.07, -6.95, -6.8, -6.1, -6.3, -6.3, -5.81, -4.9, -4.11, -3.53, -2.68, -1.7, -0.6, -0.0, -0.0, -0.0, -0.0, 0.54, 0.59, 1.05, 1.14, 0.58, 0.53, -0.0, -0.0, -0.0, -0.0, -0.0, -0.0, 1.14, -0.0, -0.0, -0.0, -0.0, -0.0, -0.0, -0.0, 1.2, -0.0, -0.0, 1.9, 1.58, 1.79, 0.0, 0.0, 0.0, 0.0, 0.0, 1.4, 0.0, -2.4, -5.26, -3.58, -1.58, 0.0, 2.24, 3.2, 2.54, -0.0, -2.09, -4.54, -3.76, -6.26, -9.6, -10.87, -12.86, -13.35, -11.95, -9.11, -5.43, -2.41, 0.0, 0.0, 0.0, -1.54, -2.89, -4.01, -3.85, -3.91, -5.37, -6.7, -7.35, -6.51, -6.51, -6.28, -6.35, -5.89, -5.94, -6.98, -6.98, -8.84, -8.55, -8.37, -8.0, -8.0, -8.0, -7.9, -7.72, -7.35, -6.7, -6.8, -6.4, -6.51, -6.51, -6.1, -5.81, -4.9, -4.34, -3.58, -2.24, -0.95, -0.0, -0.0, -0.0, 0.53, 0.59, 0.59, 1.14, 1.12, 1.12, 1.12, 1.12, 1.12, 1.14, 1.14, 0.7, -0.0, -0.0, -0.0, -0.0, -0.71, -0.85, -0.0, -0.0, -0.0, -0.0, -0.0, -0.0, -0.0, -0.0, 1.79, 1.34, 0.0, 0.0, 0.0, 0.0, 1.58, 3.2, 3.39, 1.26, 0.0, 0.0, 0.0, 1.9, 3.58, 3.47, 4.47, 2.4, -1.05, -5.75, -7.6, -9.75, -10.43, -11.09, -12.58, -12.49, -11.18, -8.01, -5.43, -4.74, -5.59, -6.05, -7.24, -7.67, -7.54, -7.63, -7.73, -4.83, -6.73, -8.06, -8.03, -7.27, -6.95, -7.59, -7.06, -7.41, -7.95, -7.95, -9.21, -8.65, -8.55, -8.37, -8.37, -8.0, -8.0, -7.64, -7.35, -7.23, -6.95, -6.8, -7.01, -7.01, -7.01, -5.34, -5.81, -5.09, -3.98, -2.68, -1.2, -0.6, -0.51, -0.0, -0.0, -0.0, 0.59, 0.66, 0.73, 1.12, 1.63, 1.73, 1.73, 2.23, 2.23, 1.71, 0.58, -0.59, -0.76, -1.08, -0.76, -0.65, -0.0, -0.0, -0.0, -0.0, -0.0, -0.0, 1.2, 1.58, 2.24, 2.24, 2.68, 2.68, 3.13, 2.68, 1.9, 1.9, 1.2, 0.0, 0.0, 0.0, 0.0, 1.79, 2.97, 3.47, 3.58, 3.13, 0.89, -1.34, -2.8, -3.84, -3.84, -2.21, -5.31, -11.62, -15.57, -14.73, -11.6, -10.52, -11.5, -11.9, -12.52, -13.05, -12.87, -12.52, -11.2, -9.56, -8.65, -8.93, -8.67, -8.32, -8.03, -8.49, -8.95, -9.2, -9.27, -9.27, -9.21, -8.84, -8.65, -8.29, -8.29, -8.55, -8.0, -8.0, -7.9, -7.61, -7.48, -7.08, -7.31, -7.31, -7.51, -7.01, -6.72, -5.57, -3.13, -2.24, -1.79, -1.49, -0.61, -0.0, -0.7, -0.0, -0.0, -0.0, 0.57, 1.12, 1.1, 1.73, 1.61, 1.71, 1.71, 1.71, 0.55, -0.0, -0.57, -0.58, -0.59, -0.0, -0.0, -0.0, -0.0, -0.0, -0.0, 1.4, 1.4, 2.8, 2.8, 2.8, 3.2, 3.13, 2.68, 2.54, 2.53, 1.58, 0.0, 0.0, 0.0, 0.0, 0.0, 2.68, 3.47, 3.58, 3.04, 2.98, 3.2, 3.16, 1.6, 0.0, 0.0, 0.0, -1.4, -8.8, -16.09, -20.43, -15.63, -14.21, -13.89, -14.39, -14.07, -14.46, -13.49, -11.75, -7.95, -4.74, -8.59, -8.23, -8.88, -9.6, -9.27, -9.6, -10.6, -11.61, -10.95, -10.95, -9.58, -9.21, -8.65, -8.65, -8.65, -8.65, -8.55, -8.0, -7.9, -7.35, -7.23, -7.48, -7.71, -7.81, -7.81, -7.31, -7.09, -6.47, -5.78, -3.13, -2.6, -2.5, -1.16, -0.55, -1.14, -0.53, -0.0, -0.0, -0.0, 0.57, 1.1, 1.1, 1.18, 1.73, 1.18, 1.1, 0.56, 0.57, -0.0, -0.0, -0.0, -0.0, -0.0, -0.0, -0.0, -0.0, -0.0, 1.4, 1.6, 2.21, 2.8, 3.2, 3.2, 3.58, 3.58, 2.54, 2.8, 2.12, 0.0, 0.0, 0.0, 0.0, 2.24, 3.13, 3.13, 3.13, 4.02, 4.57, 4.57, 3.84, 3.11, 2.31, 0.0, -2.35, -4.65, -7.42, -16.99, -21.98, -19.97, -16.97, -14.7, -13.64, -11.83, -10.09, -8.67, -6.07, -1.49, 0.0, -2.9, -5.35, -7.68, -8.67, -9.2, -9.34, -10.6, -11.71, -11.28, -11.28, -9.76, -9.21, -9.21, -9.01, -8.65, -8.65, -8.29, -8.55, -8.27, -7.9, -7.76, -7.76, -8.0, -8.0, -8.0, -7.81, -7.51, -7.26, -6.16, -5.36, -4.6, -3.14, -1.13, -0.55, -0.59, -0.53, -0.0, -0.0, -0.0, 0.57, 1.12, 1.2, 1.1, 1.2, 1.12, 1.12, 0.58, 0.58, 0.59, 0.59, 0.54, 0.61, 0.55, 0.55, 0.57, 0.51, -0.0, 1.4, 1.6, 1.4, 2.8, 2.8, 2.8, 2.8, 3.58, 3.58, 3.58, 3.04, 1.9, 1.58, 0.89, 1.34, 1.79, 3.04, 3.58, 4.02, 4.02, 4.47, 4.38, 4.77, 4.8, 3.79, 0.76, -0.85, -7.71, -9.05, -11.47, -15.63, -20.86, -19.1, -16.01, -13.56, -11.66, -8.55, -6.44, -3.35, -1.66, -3.2, -6.44, -5.7, -7.22, -7.96, -7.95, -7.54, -8.25, -9.89, -11.18, -11.18, -9.5, -9.5, -9.58, -9.21, -8.94, -9.01, -8.65, -8.55, -8.55, -8.27, -7.9, -8.15, -8.0, -8.51, -8.51, -8.0, -7.81, -7.69, -6.51, -5.36, -4.3, -2.53, -1.8, -1.08, -1.19, -0.54, -0.0, -0.0, -0.0, 0.53, 0.57, 1.12, 1.12, 1.12, 1.14, 1.14, 1.16, 0.54, 0.61, 0.55, 0.55, 1.23, 1.11, 1.11, 1.13, 1.16, 1.13, 1.4, 1.4, 1.4, 1.4, 2.8, 2.8, 3.39, 3.58, 4.02, 3.95, 3.6, 2.0, 1.2, 1.34, 2.68, 3.47, 4.15, 4.38, 4.85, 4.47, 3.58, 3.58, 3.58, 2.68, -0.0, 0.63, -1.79, -6.26, -8.48, -8.59, -8.23, -12.96, -18.73, -17.38, -15.63, -13.39, -11.98, -10.25, -8.05, -7.68, -9.27, -10.86, -11.2, -8.49, -8.59, -7.61, -6.35, -6.32, -8.14, -10.1, -10.1, -9.86, -9.86, -9.76, -9.58, -8.94, -8.94, -8.65, -8.93, -8.55, -8.55, -8.43, -8.27, -8.28, -8.28, -8.68, -8.51, -8.22, -8.0, -7.26, -5.79, -4.44, -2.79, -2.23, -1.76, -1.08, -1.19, -0.54, -0.0, -0.0, -0.0, 0.58, 0.58, 0.58, 0.58, 0.59, 0.59, 0.61, 0.55, 1.08, 1.11, 1.11, 1.27, 1.13, 1.33, 1.84, 1.61, 1.13, 1.4, 1.4, 2.21, 2.21, 2.8, 2.8, 3.2, 3.82, 3.82, 3.47, 3.2, 2.8, 1.79, 1.34, 2.24, 2.97, 3.95, 4.41, 4.85, 4.85, 4.77, 3.58, 2.24, 0.0, -2.8, -0.0, 0.63, -1.79, -6.36, -7.47, -6.44, -5.72, -9.39, -15.73, -16.93, -15.65, -16.52, -15.57, -15.78, -15.52, -15.49, -14.39, -12.47, -10.28, -7.96, -6.98, -6.64, -6.35, -7.54, -9.05, -9.05, -9.86, -9.86, -9.5, -9.76, -9.3, -9.3, -9.21, -8.65, -8.93, -8.55, -8.55, -8.43, -8.43, -8.68, -8.68, -8.68, -8.51, -8.3, -8.0, -6.51, -4.92, -3.2, -2.23, -2.23, -1.76, -1.23, -0.55, -0.0, -0.0, -0.0, -0.0, 0.59, 0.59, 0.54, 0.61, 0.55, 0.55, 0.57, 1.11, 1.13, 1.13, 1.33, 1.16, 1.88, 1.88, 1.88, 1.88, 1.9, 1.9, 2.5, 2.15, 2.21, 2.21, 2.53, 2.84, 3.82, 3.72, 3.2, 3.2, 3.13, 2.8, 2.0, 2.54, 4.02, 4.47, 4.47, 4.85, 4.57, 3.6, 0.0, -0.85, -1.49, 0.0, 0.76, 0.76, 0.0, -0.73, -3.09, -3.25, -2.2, -7.12, -15.05, -18.76, -18.76, -17.81, -18.17, -18.35, -17.47, -14.92, -12.49, -10.75, -6.96, -6.35, -6.58, -7.27, -6.98, -7.59, -7.59, -9.86, -9.86, -9.86, -9.5, -9.5, -9.3, -9.3, -9.21, -8.84, -9.1, -9.1, -8.55, -8.82, -8.82, -9.2, -9.2, -9.01, -8.72, -8.48, -7.26, -5.78, -3.98, -2.79, -2.84, -2.23, -1.8, -1.11, -0.57, -0.0, -0.0, -0.0, -0.0, 0.55, 0.55, 0.57, 0.57, 0.66, 0.59, 1.13, 1.16, 1.16, 1.4, 1.61, 1.61, 1.9, 1.9, 1.9, 1.9, 2.15, 2.5, 2.5, 2.5, 2.84, 2.84, 2.84, 3.16, 3.72, 3.72, 2.84, 2.8, 3.2, 3.35, 3.04, 4.02, 4.02, 4.47, 4.38, 4.57, 1.98, 0.0, -0.99, -1.41, -0.73, 0.0, 0.76, 1.7, 0.67, -2.12, -4.07, -3.21, -2.26, -7.06, -15.65, -18.76, -16.99, -16.47, -16.25, -15.34, -12.74, -11.6, -12.05, -7.46, -6.95, -7.15, -7.85, -7.18, -6.98, -6.98, -9.86, -9.86, -9.86, -9.86, -9.86, -9.86, -9.3, -9.3, -9.21, -9.21, -9.21, -9.1, -9.1, -8.96, -8.96, -9.2, -9.2, -9.01, -8.72, -8.0, -6.61, -4.92, -3.82, -2.79, -2.23, -1.84, -1.33, -0.59, -0.59, -0.0, -0.0, -0.0, 0.53, 0.53, 0.65, 0.65, 0.54, 0.71, 1.24, 1.24, 1.58, 1.86, 1.86, 1.86, 1.86, 1.86, 1.86, 1.86, 1.86, 2.4, 2.5, 3.07, 3.14, 2.84, 2.21, 1.74, 2.48, 2.48, 2.15, 2.6, 3.58, 4.38, 5.2, 4.85, 4.92, 4.02, 4.38, 2.53, 1.6, 0.0, -0.87, -0.98, -1.83, -1.7, 0.0, 0.0, -2.51, -4.28, -5.52, -5.28, -4.0, -2.9, -6.9, -12.96, -16.93, -17.88, -16.83, -12.86, -8.94, -9.83, -12.52, -14.15, -10.28, -10.24, -9.17, -8.53, -7.9, -7.9, -10.41, -10.41, -9.86, -9.86, -9.86, -9.86, -9.66, -9.3, -9.3, -9.21, -9.21, -9.21, -9.1, -9.1, -9.35, -9.35, -9.35, -9.2, -9.01, -8.3, -7.26, -5.78, -4.47, -3.39, -3.07, -2.21, -1.88, -1.24, -0.57, -0.0, -0.0, 0.57, 0.57, 0.57, 0.8, 1.26, 1.26, 1.26, 1.26, 1.6, 1.6, 1.7, 1.79, 1.79, 1.79, 1.79, 1.79, 1.7, 1.86, 1.86, 1.9, 2.68, 3.35, 3.88, 3.72, 1.9, 2.53, 2.48, 2.15, 3.22, 3.47, 4.02, 4.38, 4.38, 3.95, 4.92, 3.6, 1.0, 0.0, 0.0, 0.0, 0.0, -1.7, -3.22, -4.19, -6.0, -9.03, -9.3, -7.9, -6.14, -5.38, -4.03, -3.37, -4.74, -9.74, -15.2, -14.29, -11.98, -10.25, -10.28, -13.39, -16.02, -12.81, -12.59, -11.45, -10.47, -9.84, -9.84, -10.41, -10.41, -9.86, -9.86, -9.86, -9.86, -9.59, -9.66, -9.3, -9.3, -9.21, -9.21, -9.21, -9.1, -9.1, -9.35, -9.35, -9.35, -9.2, -8.51, -8.0, -6.51, -5.33, -4.02, -3.09, -3.13, -2.17, -1.7, -0.95, -0.0, -0.0, 0.63, 0.95, 1.2, 1.2, 1.2, 1.2, 1.34, 1.34, 1.79, 1.79, 1.79, 1.79, 1.34, 1.34, 2.24, 2.17, 2.12, 2.24, 1.7, 2.12, 2.4, 3.32, 3.6, 3.7, 3.2, 3.39, 3.35, 2.53, 3.22, 3.6, 3.9, 3.58, 3.58, 4.02, 5.29, 4.66, 1.6, -0.89, 0.0, 0.0, 0.0, 0.0, -2.35, -6.39, -8.63, -9.83, -10.25, -10.15, -8.68, -6.53, -5.72, -4.45, -2.89, -2.72, -4.66, -4.41, -8.4, -13.77, -15.2, -16.01, -16.91, -16.48, -14.62, -13.54, -12.32, -11.1, -11.1, -10.41, -10.41, -10.23, -9.86, -9.86, -9.86, -9.59, -9.59, -9.66, -9.3, -9.3, -9.58, -9.21, -9.21, -9.48, -9.1, -9.1, -9.35, -9.2, -8.68, -8.0, -7.51, -6.51, -5.31, -4.3, -3.53, -2.68, -1.79, -1.34, -0.45, 0.0, 0.45, 0.89, 1.34, 1.34, 1.34, 1.34, 1.34, 1.79, 1.79, 1.79, 2.12, 2.12, 2.12, 2.12, 1.34, 1.6, 2.4, 2.6, 2.68, 2.68, 3.13, 3.07, 3.39, 3.82, 3.82, 3.53, 3.53, 3.6, 2.21, 2.84, 2.6, 2.24, 2.24, 4.85, 5.29, 5.36, 4.47, 0.89, 0.0, 1.26, 1.6, 1.52, 0.0, -3.11, -6.05, -5.69, -5.75, -8.14, -9.2, -8.68, -6.95, -5.72, -4.71, -3.37, -1.45, -0.7, -2.15, -8.38, -12.07, -12.94, -12.94, -12.95, -16.69, -15.96, -14.65, -13.54, -13.54, -10.41, -10.41, -10.41, -10.23, -9.86, -9.86, -9.94, -9.59, -9.59, -9.59, -9.3, -9.3, -9.58, -9.21, -9.21, -9.21, -9.1, -9.1, -8.96, -8.82, -8.28, -7.76, -6.95, -5.75, -4.55, -4.11, -2.91, -1.86, -1.26, -0.6, 0.0, 0.6, 0.6, 1.26, 1.26, 1.6, 1.6, 1.7, 1.7, 1.7, 2.12, 2.12, 2.12, 2.4, 2.6, 1.34, 1.34, 2.17, 2.6, 2.68, 3.13, 3.13, 3.13, 3.13, 3.51, 3.39, 3.53, 3.58, 3.53, 2.6, 1.49, 1.0, 0.95, 3.2, 3.58, 3.83, 4.15, 4.02, 3.2, 1.9, 2.54, 2.98, 2.76, 3.06, 0.8, -1.5, -3.09, -2.3, -3.84, -6.64, -6.96, -5.38, -4.12, -3.84, -4.1, -2.75, -2.37, -1.36, -2.66, -4.0, -4.3, -3.74, -3.32, -3.45, -12.49, -12.13, -11.3, -11.3, -10.41, -10.41, -10.41, -10.23, -10.23, -9.94, -9.94, -9.94, -9.94, -9.59, -9.59, -9.3, -9.3, -9.21, -9.21, -9.21, -9.21, -9.1, -9.1, -8.55, -8.0, -7.9, -6.79, -6.15, -4.94, -4.37, -3.35, -2.21, -0.8, -0.71, 0.0, 0.0, 0.71, 1.24, 1.24, 1.24, 1.86, 1.86, 1.86, 1.86, 1.86, 1.86, 1.86, 1.86, 2.4, 1.86, 2.12, 2.12, 2.24, 2.24, 2.68, 2.68, 2.68, 2.68, 2.68, 3.07, 3.07, 3.13, 3.13, 3.07, 1.58, 0.8, 2.24, 3.04, 3.2, 3.22, 2.53, 1.9, 2.68, 2.53, 2.98, 2.98, 1.6, 1.18, 1.63, 0.79, -1.41, -2.0, -1.49, -2.73, -2.73, -1.4, -0.65, -1.11, -1.73, -2.18, -3.42, -2.89, -2.4, -2.0, -1.84, -0.65, 0.0, 0.0, -3.84, -5.09, -5.38, -5.38, -10.41, -10.41, -10.41, -10.23, -9.94, -9.94, -9.94, -9.94, -9.94, -9.94, -9.59, -9.66, -9.3, -9.3, -8.94, -8.94, -9.21, -8.73, -8.65, -8.29, -8.0, -7.8, -6.87, -6.23, -5.35, -4.71, -3.2, -2.23, -1.84, -0.71, 0.0, 0.0, 0.53, 0.65, 1.2, 1.2, 1.2, 1.9, 1.9, 1.9, 1.9, 1.58, 1.86, 1.86, 1.86, 1.86, 2.12, 1.7, 1.7, 1.7, 2.12, 2.24, 2.24, 2.24, 2.24, 2.24, 2.24, 2.24, 2.68, 2.68, 2.6, 1.6, 3.58, 3.13, 3.47, 3.2, 2.6, 1.9, 2.24, 2.8, 3.22, 2.84, 0.0, -1.6, -0.82, 0.0, 0.0, -0.63, -0.6, -0.66, 0.0, 0.0, 0.0, 0.0, 0.0, -0.58, -1.8, -2.29, -2.26, -2.35, -2.3, -1.49, 0.0, 0.0, 0.0, -0.73, -1.41, -1.41, -10.41, -10.41, -10.15, -10.15, -9.94, -9.94, -9.94, -9.94, -9.94, -9.66, -9.59, -9.37, -9.3, -9.3, -8.94, -8.94, -8.45, -8.73, -8.38, -8.08, -8.08, -7.51, -6.92, -6.28, -5.08, -4.45, -3.49, -2.61, -1.76, -1.11, -0.59, 0.0, 0.0, 0.61, 0.61, 1.16, 1.16, 1.88, 1.88, 1.88, 1.61, 1.9, 1.9, 1.9, 1.24, 1.58, 1.26, 1.26, 1.6, 1.6, 1.7, 1.7, 2.12, 2.24, 1.79, 1.79, 2.24, 2.24, 2.24, 2.68, 3.13, 2.8, 3.58, 3.58, 2.97, 2.97, 1.9, 1.9, 2.24, 2.68, 2.98, 3.16, 0.0, -2.35, -3.11, -0.77, 1.52, 2.31, 1.36, 0.0, 0.0, -0.71, -0.71, -0.71, -0.71, -1.14, -1.69, -1.61, -1.4, -1.45, -1.47, -0.85, -0.8, 0.0, 0.0, 0.0, -0.7, -0.7, -10.15, -10.15, -10.15, -10.15, -9.94, -9.94, -9.94, -9.94, -9.66, -9.66, -9.42, -9.37, -9.02, -9.3, -8.73, -8.45, -8.45, -8.19, -7.86, -8.15, -7.55, -7.51, -6.92, -6.32, -5.1, -4.75, -3.45, -2.82, -1.7, -1.19, -0.55, 0.0, 0.0, 0.0, 0.59, 0.59, 1.13, 1.84, 1.84, 1.84, 1.61, 1.88, 1.61, 1.2, 1.49, 1.24, 1.58, 1.26, 1.26, 1.6, 1.6, 1.7, 2.12, 2.12, 1.7, 1.7, 2.12, 2.12, 2.17, 2.68, 2.6, 3.2, 3.2, 3.58, 2.68, 1.9, 1.2, 1.2, 1.26, 1.79, 2.12, 2.84, 1.14, 0.0, -1.62, -0.76, 1.54, 3.82, 3.91, 1.52, 0.0, -1.4, -2.12, -2.06, -2.17, -2.28, -2.17, -1.44, -0.79, -0.71, -0.79, -0.7, -0.87, -0.76, -0.7, 0.0, 0.0, 0.0, -10.15, -10.15, -10.15, -10.15, -9.94, -9.94, -9.94, -9.94, -9.66, -9.66, -9.42, -9.08, -9.37, -8.78, -8.45, -8.45, -8.19, -8.19, -7.86, -7.59, -7.55, -6.95, -6.34, -5.72, -5.1, -4.73, -3.42, -3.0, -1.67, -1.16, -0.54, 0.0, 0.0, 0.0, 0.0, 0.57, 1.27, 1.27, 1.8, 1.6, 1.84, 1.61, 1.16, 1.4, 1.2, 1.2, 1.24, 1.24, 1.26, 1.26, 1.6, 1.6, 1.7, 1.86, 2.12, 2.12, 2.12, 2.12, 2.17, 2.68, 2.68, 2.4, 2.8, 2.0, 1.79, 1.58, 1.0, 1.2, 2.0, 1.6, 2.68, 2.6, 2.6, 1.67, 0.78, 0.0, 0.0, 1.54, 0.79, 0.0, 0.0, -0.71, -1.41, -2.2, -2.12, -2.06, -1.55, -1.63, -0.78, -0.79, -0.73, -0.79, -0.81, -1.49, -1.49, -1.41, 0.0, 0.0, -10.15, -10.15, -10.15, -9.94, -9.94, -9.94, -9.94, -9.94, -9.66, -9.66, -9.42, -9.08, -8.82, -8.78, -8.78, -8.45, -7.86, -7.59, -7.59, -7.59, -6.97, -6.67, -6.06, -5.45, -5.1, -4.05, -3.4, -2.96, -1.76, -1.23, -0.58, -0.59, 0.0, 0.0, 0.0, 0.63, 0.57, 1.11, 1.11, 1.27, 1.13, 1.33, 1.16, 0.57, 1.16, 1.2, 0.65, 0.71, 0.57, 0.8, 0.95, 1.6, 1.6, 1.86, 1.86, 1.86, 2.12, 2.12, 2.6, 2.6, 2.6, 2.68, 2.4, 1.6, 1.34, 2.24, 1.58, 1.9, 2.4, 2.24, 2.24, 2.4, 3.48, 3.4, 3.21, 0.76, -0.72, -2.4, -2.97, -2.83, -2.06, -1.36, -1.41, -2.11, -1.27, -0.66, 0.0, 0.0, 0.0, 0.0, -0.76, -0.73, -0.74, -1.55, -2.3, -2.3, -2.2, -0.7, -10.15, -10.15, -10.15, -9.94, -9.94, -9.94, -9.66, -9.66, -9.66, -9.42, -9.42, -9.08, -8.82, -8.5, -8.5, -8.19, -8.19, -7.59, -7.3, -6.69, -6.69, -6.35, -6.0, -5.34, -4.69, -4.03, -3.6, -2.75, -2.12, -1.76, -1.12, -0.58, -0.53, 0.0, 0.0, 0.61, 0.55, 0.55, 0.57, 0.57, 1.13, 1.13, 1.16, 0.71, 1.33, 1.16, 0.53, 0.65, 0.54, 0.57, 0.8, 0.95, 1.6, 1.26, 1.86, 1.86, 1.86, 2.12, 2.6, 2.6, 2.6, 2.68, 2.68, 0.89, 1.79, 2.68, 3.13, 2.54, 2.97, 3.13, 2.68, 3.13, 3.2, 3.79, 4.6, 4.0, 1.6, -0.88, -3.26, -4.14, -3.47, -2.72, -2.26, -1.41, 0.0, 0.0, 0.66, 0.81, 0.0, 0.0, 0.0, -0.73, -0.8, -1.52, -2.2, -2.79, -2.98, -2.2, -10.15, -10.15, -9.94, -9.94, -9.66, -9.66, -9.66, -9.42, -9.42, -9.42, -9.08, -8.82, -8.82, -8.5, -8.22, -7.9, -7.9, -7.3, -6.98, -6.69, -6.35, -6.08, -5.72, -5.34, -4.69, -4.03, -3.37, -2.92, -2.26, -1.63, -1.2, -0.57, -0.58, 0.0, 0.0, 0.0, 0.0, 0.0, 0.55, 0.57, 0.59, 0.59, 1.33, 1.13, 0.71, 1.13, 0.7, 0.61, 0.61, 0.65, 0.71, 0.57, 1.26, 1.58, 1.24, 1.24, 1.58, 1.86, 2.23, 2.4, 2.4, 2.6, 2.12, 2.68, 2.68, 2.68, 2.24, 2.54, 2.6, 3.58, 3.13, 2.68, 3.13, 3.2, 4.74, 5.69, 3.72, 1.4, 0.0, -2.15, -2.51, -2.0, -1.41, 0.0, 0.67, 0.67, 0.69, 0.0, 0.0, 0.0, -0.8, -0.77, -0.77, -1.65, -1.72, -2.53, -3.07, -2.98, -9.94, -9.94, -9.94, -9.66, -9.66, -9.66, -9.42, -9.42, -9.42, -9.08, -8.82, -8.82, -8.5, -8.22, -8.22, -8.22, -7.6, -7.6, -6.98, -6.69, -6.35, -5.72, -5.46, -5.34, -4.69, -4.03, -3.37, -2.73, -2.4, -1.73, -1.1, -0.56, -0.57, 0.0, 0.0, 0.0, 0.0, 0.0, 0.0, 0.0, 0.0, 0.59, 0.59, 0.59, 1.27, 0.71, 1.27, 1.13, 1.13, 1.13, 1.16, 1.4, 1.2, 1.2, 1.2, 1.49, 1.49, 1.9, 1.9, 1.9, 2.15, 2.4, 2.4, 2.68, 2.24, 2.68, 2.24, 2.8, 3.2, 3.47, 3.58, 3.13, 3.13, 2.68, 3.13, 3.35, 1.58, 0.8, 0.0, 0.0, 0.0, 0.0, 1.36, 1.4, 1.4, 0.73, 0.0, 0.0, 0.0, -0.74, -1.54, -1.43, -1.54, -1.67, -1.65, -2.2, -3.22, -3.22, -9.94, -9.94, -9.94, -9.66, -9.66, -9.42, -9.42, -9.42, -9.08, -8.82, -8.82, -8.5, -8.5, -8.22, -8.22, -7.61, -7.32, -7.32, -6.7, -6.35, -6.35, -5.72, -5.08, -5.08, -4.44, -4.03, -3.56, -2.89, -2.23, -1.71, -1.09, -0.59, -0.56, -0.57, 0.0, 0.0, 0.0, 0.0, 0.0, 0.0, 0.0, 0.0, 0.59, 0.59, 0.59, 0.57, 1.27, 1.27, 1.27, 1.27, 1.8, 1.8, 1.84, 1.61, 1.16, 1.2, 1.61, 1.9, 2.21, 2.21, 2.5, 1.9, 1.86, 2.24, 2.24, 2.68, 3.13, 3.13, 3.47, 3.47, 3.58, 3.58, 3.2, 2.4, -0.0, 0.0, 0.0, 0.0, 1.41, 3.79, 4.94, 5.7, 4.92, 3.6, 2.88, 1.5, 0.0, -0.8, -1.52, -1.54, -1.5, -1.5, -1.47, -1.6, -2.44, -3.27, -3.27, -3.27, -9.94, -9.94, -9.94, -9.66, -9.42, -9.42, -9.42, -9.42, -8.82, -8.82, -8.82, -8.5, -8.22, -8.22, -8.22, -7.32, -7.32, -6.98, -6.98, -6.34, -5.7, -5.06, -5.32, -4.66, -4.2, -4.0, -3.35, -2.86, -2.37, -1.71, -1.71, -1.09, -1.18, -0.56, -0.57, -0.53, -0.53, 0.0, 0.0, 0.0, 0.0, 0.0, 0.0, 0.0, 0.57, 0.57, 0.66, 1.27, 1.27, 1.27, 1.8, 1.8, 1.13, 1.33, 1.16, 1.16, 1.4, 1.88, 1.88, 1.88, 1.88, 1.88, 1.9, 2.4, 2.24, 2.24, 2.68, 3.58, 3.47, 3.47, 3.47, 3.2, 2.98, 2.4, 0.0, -1.26, -0.79, 0.0, 3.21, 6.97, 8.56, 8.51, 7.38, 5.02, 3.41, 2.1, 0.72, 0.0, -1.55, -2.31, -1.52, -1.52, -1.52, -2.47, -2.97, -3.21, -3.21, -3.21, -9.94, -9.94, -9.66, -9.66, -9.42, -9.42, -9.13, -8.53, -8.53, -8.53, -8.5, -8.22, -8.22, -8.22, -8.22, -7.6, -7.32, -6.98, -6.98, -5.95, -5.7, -5.29, -4.63, -4.63, -3.97, -3.32, -3.52, -2.86, -2.21, -2.21, -1.71, -1.71, -1.18, -1.1, -1.2, -0.57, -0.58, -0.59, 0.0, 0.0, 0.0, 0.0, 0.0, 0.0, 0.0, 0.0, 0.59, 0.59, 0.59, 0.59, 1.13, 1.13, 0.59, 0.7, 0.61, 1.16, 1.4, 1.2, 1.2, 1.61, 1.88, 1.88, 1.88, 1.9, 1.9, 2.24, 2.68, 2.12, 3.2, 3.2, 3.6, 2.98, 2.21, 1.58, 0.0, 0.0, 0.0, 0.83, 3.32, 6.57, 9.4, 9.16, 7.08, 4.79, 3.41, 2.88, 2.1, 0.78, -1.45, -2.29, -2.12, -2.4, -2.44, -3.06, -2.97, -3.21, -3.21, -3.21, -9.94, -9.94, -9.66, -9.42, -9.42, -9.13, -8.85, -8.53, -8.53, -8.53, -7.93, -7.93, -8.22, -8.22, -7.6, -7.6, -7.32, -6.98, -6.7, -6.34, -5.7, -5.29, -4.63, -4.63, -3.97, -3.97, -3.32, -2.86, -2.86, -2.21, -2.37, -1.71, -1.73, -1.18, -1.2, -1.12, -0.58, -0.58, 0.0, 0.0, 0.0, 0.0, 0.0, 0.0, 0.0, 0.0, 0.0, 0.0, 0.0, 0.0, 0.59, 0.59, 0.59, 0.61, 0.61, 0.61, 1.16, 1.4, 1.2, 1.2, 1.61, 1.88, 1.88, 1.88, 1.86, 2.68, 2.68, 1.79, 2.6, 3.22, 2.98, 2.21, 1.0, 0.95, 0.0, 0.0, 0.0, 0.76, 3.2, 5.49, 7.52, 7.79, 5.73, 4.86, 4.17, 2.71, 1.39, 1.39, 0.0, -2.48, -2.16, -1.6, -2.26, -2.99, -3.15, -3.15, -3.15, -3.15, -9.66, -9.66, -9.42, -9.42, -9.42, -8.85, -8.53, -8.53, -8.53, -8.24, -8.24, -7.93, -7.93, -7.61, -7.61, -7.32, -7.32, -6.98, -6.7, -6.34, -5.7, -5.29, -5.06, -4.63, -4.16, -3.97, -3.32, -3.52, -2.86, -2.89, -2.37, -2.23, -1.73, -1.73, -1.1, -1.12, -0.57, -0.58, -0.58, 0.0, 0.0, 0.0, 0.0, 0.0, 0.0, 0.0, 0.0, 0.0, 0.0, 0.0, 0.0, 0.0, 0.0, 0.59, 0.61, 0.61, 1.16, 1.16, 1.2, 1.2, 1.2, 1.61, 1.88, 1.88, 1.9, 1.9, 2.68, 2.68, 2.8, 2.21, 2.53, 1.9, 1.26, 0.0, 0.0, 0.0, 0.85, 1.66, 3.22, 4.74, 5.69, 6.2, 6.2, 6.48, 5.52, 2.71, 0.7, 0.71, 0.0, -0.8, -0.85, -0.79, -1.55, -2.29, -2.8, -2.47, -2.47, -2.47, -9.66, -9.66, -9.42, -9.42, -9.42, -8.53, -8.53, -8.53, -8.24, -8.24, -8.24, -7.93, -7.61, -7.61, -7.61, -7.32, -6.98, -6.98, -6.7, -6.34, -6.34, -5.29, -5.06, -4.63, -4.63, -3.97, -4.0, -3.52, -3.35, -2.89, -2.89, -2.23, -1.84, -1.73, -1.1, -1.1, -0.57, -0.57, -0.58, -0.58, 0.0, 0.0, 0.0, 0.0, 0.0, 0.0, 0.0, 0.0, 0.0, 0.0, 0.0, 0.0, 0.0, 0.0, 0.51, 0.61, 0.61, 1.16, 1.16, 1.2, 1.2, 1.2, 1.2, 1.88, 1.9, 2.4, 2.68, 2.68, 3.13, 2.23, 2.6, 2.0, 1.79, 1.34, 1.34, 1.26, 1.9, 2.53, 3.48, 4.84, 5.46, 6.32, 7.73, 8.01, 4.84, 1.36, 0.0, 0.0, 0.0, 0.0, -0.71, -0.85, -0.87, -1.8, -2.3, -1.66, -1.66, -1.66, -9.42, -9.42, -9.42, -9.42, -9.42, -8.53, -8.53, -8.53, -8.24, -8.24, -8.24, -7.61, -7.61, -7.61, -7.61, -7.32, -6.98, -6.98, -6.7, -6.34, -6.34, -5.7, -5.06, -4.63, -4.42, -4.2, -4.0, -3.52, -3.35, -2.89, -2.89, -2.23, -1.71, -1.73, -1.18, -1.1, -1.1, -0.57, -0.57, -0.58, -0.53, -0.59, 0.0, 0.0, 0.0, 0.0, 0.0, 0.0, 0.0, 0.0, 0.0, 0.0, 0.0, 0.0, 0.0, 0.61, 0.61, 0.61, 0.61, 1.16, 1.2, 1.2, 1.2, 1.61, 1.9, 2.0, 2.24, 2.24, 2.68, 2.68, 2.54, 1.26, 2.24, 1.79, 1.79, 1.79, 2.0, 2.6, 3.6, 5.09, 5.2, 5.82, 7.06, 6.42, 2.82, 0.0, 0.0, 0.0, 0.6, 0.0, 0.0, -0.85, -0.85, -0.99, -1.6, -1.4, -1.4, -1.4, -9.42, -9.42, -9.42, -9.42, -8.53, -8.53, -8.53, -8.24, -8.24, -8.24, -7.9, -7.61, -7.61, -7.61, -7.61, -6.98, -6.98, -6.98, -6.34, -6.34, -5.95, -5.7, -5.06, -4.63, -4.42, -4.2, -4.0, -3.52, -3.35, -2.86, -2.89, -2.37, -2.23, -1.71, -1.61, -1.18, -1.1, -1.1, -0.57, -0.57, -0.58, -0.59, -0.59, -0.54, -0.54, -0.61, 0.0, 0.0, 0.0, 0.0, 0.0, 0.0, 0.0, 0.0, 0.0, 0.0, 0.61, 0.61, 0.61, 0.61, 1.4, 1.2, 1.2, 1.2, 1.9, 1.6, 1.79, 1.79, 2.24, 2.24, 1.79, -0.0, -0.0, 1.34, 1.34, 1.34, 1.79, 2.24, 3.13, 4.38, 4.57, 5.09, 4.84, 3.09, 0.0, -1.36, -0.63, -0.0, 0.0, 0.0, 0.0, -0.71, -0.95, -1.9, -0.85, -0.85, -0.85, -0.85, -9.42, -9.42, -9.42, -8.85, -8.53, -8.53, -8.53, -8.24, -8.24, -8.24, -7.9, -7.33, -7.33, -7.33, -6.97, -6.98, -6.98, -6.61, -6.34, -6.34, -5.95, -5.7, -5.06, -4.63, -4.42, -3.97, -3.97, -3.52, -3.52, -2.86, -2.86, -2.21, -2.37, -1.71, -1.71, -1.73, -1.18, -1.1, -1.2, -1.12, -0.58, -0.58, -0.59, -0.59, -0.54, -0.61, -0.55, 0.0, 0.0, 0.0, 0.0, 0.0, 0.0, 0.0, 0.0, 0.0, 0.0, 0.0, 0.61, 0.61, 0.53, 0.65, 1.2, 1.2, 1.24, 1.26, 0.45, 1.34, 1.34, 1.34, 1.34, 0.0, -0.0, -1.26, 0.0, 0.0, 0.89, 1.79, 2.68, 3.58, 4.02, 4.15, 3.58, 0.83, -2.1, -1.44, 0.0, -0.0, -0.45, -0.54, -0.7, -1.4, -2.6, -1.6, -1.26, -1.0, -1.0, -1.0, -9.13, -9.13, -9.13, -8.85, -8.85, -8.53, -8.53, -8.24, -8.24, -8.24, -7.95, -7.61, -7.33, -7.33, -6.97, -6.71, -6.98, -6.61, -6.34, -5.95, -5.95, -5.7, -5.06, -4.63, -4.63, -3.97, -3.97, -3.32, -3.52, -3.01, -2.86, -2.33, -2.37, -2.37, -1.71, -1.71, -1.73, -1.1, -1.2, -1.12, -1.23, -1.14, -1.05, -0.59, -0.54, -0.61, -0.55, -0.55, 0.0, 0.0, 0.0, 0.0, 0.0, 0.0, 0.0, 0.0, 0.0, 0.0, 0.0, 0.61, 0.53, 0.65, 0.65, 0.65, 1.24, 1.26, 0.95, 0.0, -0.0, -0.0, 0.0, 0.0, 0.0, -0.0, -1.34, 0.0, 0.0, 0.89, 2.0, 2.97, 3.58, 3.95, 3.58, 0.0, -0.71, 0.0, 1.26, 0.45, -0.8, -1.58, -1.8, -2.07, -2.23, -1.34, -1.34, -1.79, -1.79, -1.79, -9.13, -9.13, -8.85, -8.85, -8.85, -8.53, -8.53, -8.24, -8.24, -8.24, -7.61, -7.61, -7.33, -7.33, -6.97, -6.97, -6.71, -6.33, -6.33, -5.69, -5.69, -5.69, -5.29, -4.63, -4.63, -4.16, -3.97, -3.49, -3.32, -3.52, -2.86, -2.86, -2.21, -2.37, -2.23, -1.71, -1.73, -1.73, -1.2, -1.12, -1.12, -1.14, -1.14, -1.16, -0.54, -0.61, -0.61, -0.55, -0.55, -0.55, -0.63, 0.0, 0.0, 0.0, 0.0, 0.0, 0.0, 0.0, 0.0, 0.0, 0.0, 0.65, 0.65, 0.54, 0.71, 0.57, 0.6, 0.0, -0.95, -0.8, -1.26, -0.95, -0.0, -0.0, 0.0, 0.0, 0.0, 1.34, 2.4, 2.97, 3.47, 3.58, 2.47, 1.54, 1.4, 1.4, 2.6, 1.34, -0.63, -2.4, -3.48, -1.88, -1.34, -1.26, -1.79, -1.79, -1.79, -1.79, -9.13, -9.13, -8.85, -8.85, -8.85, -8.85, -8.24, -8.24, -8.24, -7.95, -7.61, -7.61, -7.33, -7.33, -6.97, -6.97, -6.71, -6.33, -6.33, -6.08, -5.69, -5.69, -5.04, -4.84, -4.63, -4.63, -3.97, -3.97, -3.49, -3.52, -3.52, -2.86, -2.71, -2.37, -2.23, -2.23, -1.73, -1.73, -1.76, -1.76, -1.12, -1.14, -1.14, -1.16, -1.16, -0.54, -0.61, -0.61, -0.55, -0.55, -0.55, -0.63, 0.0, 0.0, 0.0, 0.0, 0.0, 0.0, 0.0, 0.0, 0.0, 0.0, 0.0, 0.0, 0.0, 0.0, 0.0, 0.0, -0.95, -1.0, -1.58, -2.0, -1.26, -0.0, -0.0, 0.0, 0.0, 1.58, 1.9, 2.21, 2.6, 2.97, 1.74, 1.41, 0.7, 1.2, 3.74, 4.38, 0.89, -1.86, -3.45, -1.7, -0.0, -0.0, -1.6, -2.0, -2.0, -2.0, -9.13, -9.13, -8.85, -8.85, -8.85, -8.85, -8.24, -8.24, -7.95, -7.95, -7.61, -7.61, -7.33, -6.97, -6.97, -6.97, -6.71, -6.33, -6.33, -6.33, -5.69, -5.69, -5.26, -5.04, -4.84, -4.63, -4.63, -3.97, -3.97, -3.52, -3.52, -2.86, -2.86, -2.89, -2.23, -2.23, -2.26, -1.73, -1.76, -1.76, -1.65, -1.14, -1.14, -1.16, -1.16, -1.16, -0.54, -0.54, -0.61, -0.61, -0.55, -0.55, -0.63, 0.0, 0.0, 0.0, 0.0, 0.0, 0.0, 0.0, 0.0, 0.0, 0.0, 0.0, 0.0, 0.0, 0.0, 0.0, -0.95, -1.34, -1.0, -1.2, -1.0, -1.26, -0.95, -1.34, -0.0, 1.0, 1.2, 1.2, 0.85, 0.0, 0.0, -0.57, -0.71, -0.63, 1.26, 4.93, 3.51, -0.63, -1.86, -0.57, -0.0, -0.0, -2.0, -1.9, -1.9, -1.9, -9.13, -9.13, -8.85, -8.85, -8.85, -8.56, -8.24, -7.95, -7.95, -7.95, -7.61, -7.61, -7.33, -6.97, -6.97, -6.97, -6.71, -6.33, -6.33, -6.33, -5.69, -5.69, -5.26, -5.04, -4.84, -4.63, -4.63, -3.97, -3.97, -3.52, -3.52, -3.35, -3.05, -2.89, -2.73, -2.4, -2.26, -2.26, -1.76, -1.76, -1.65, -1.8, -1.14, -1.14, -1.16, -1.16, -1.16, -0.59, -0.54, -0.54, -0.61, -0.55, -0.55, 0.0, 0.0, 0.0, 0.0, 0.0, 0.0, 0.0, 0.0, 0.0, 0.0, 0.0, 0.0, 0.0, 0.0, 0.0, -0.57, -1.34, -0.95, -1.0, -1.58, -1.26, -1.34, -1.34, -1.34, -0.0, -0.0, -0.0, -0.0, -0.95, -2.12, -2.21, -2.79, -2.86, -0.0, 3.49, 4.09, 0.76, -0.73, -0.73, -0.0, -0.95, -1.58, -1.74, -1.74, -1.74, -9.13, -9.13, -8.85, -8.85, -8.56, -8.56, -8.24, -7.95, -7.95, -7.61, -7.61, -7.61, -7.33, -6.97, -6.97, -6.97, -6.33, -6.33, -6.33, -6.33, -5.69, -5.69, -5.26, -5.04, -4.84, -4.63, -4.63, -3.97, -4.2, -4.0, -3.52, -3.35, -3.56, -2.89, -2.73, -2.92, -2.26, -2.26, -2.29, -1.76, -1.65, -1.65, -1.8, -1.14, -1.14, -1.05, -1.16, -0.59, -0.59, -0.59, -0.54, -0.61, -0.61, 0.0, 0.0, 0.0, 0.0, 0.0, 0.0, 0.0, 0.0, 0.0, 0.0, 0.0, 0.0, 0.0, 0.0, 0.0, 0.0, -0.8, -1.34, -1.79, -1.6, -1.79, -1.34, 0.0, 0.0, 0.0, 0.0, 0.0, -0.0, -1.26, -2.54, -3.48, -3.33, -3.9, -2.23, -0.0, 2.15, 1.49, -0.0, -1.41, -2.15, -2.6, -1.74, -1.98, -1.98, -1.98, -8.85, -8.85, -8.85, -8.85, -8.56, -8.24, -8.24, -7.95, -7.95, -7.61, -7.61, -7.61, -7.33, -6.97, -6.97, -6.97, -6.33, -6.33, -6.33, -6.33, -5.69, -5.69, -5.69, -5.04, -4.84, -4.63, -4.63, -4.42, -4.2, -4.0, -4.0, -3.56, -3.56, -3.37, -2.89, -2.92, -2.75, -2.26, -2.29, -2.29, -1.76, -1.65, -1.8, -1.23, -1.14, -1.14, -1.14, -1.14, -0.59, -0.59, -0.59, -0.61, -0.61, -0.61, -0.61, 0.0, 0.0, 0.0, 0.0, 0.0, 0.0, 0.0, 0.0, 0.0, 0.0, 0.0, 0.0, 0.0, 0.0, -0.54, -0.8, -1.79, -1.79, -1.79, -1.34, 0.0, 0.0, 0.0, 0.0, 0.0, 0.0, -1.79, -2.4, -2.76, -3.27, -3.06, -3.09, -1.24, -0.0, -0.0, -0.0, -1.49, -2.79, -3.16, -2.41, -1.98, -1.98, -1.98, -8.85, -8.85, -8.85, -8.85, -8.56, -8.24, -8.24, -7.95, -7.95, -7.61, -7.61, -7.61, -6.97, -6.97, -6.97, -6.97, -6.33, -6.33, -6.33, -6.33, -5.69, -5.69, -5.69, -5.04, -5.29, -4.63, -4.63, -4.42, -4.2, -4.0, -4.0, -3.56, -3.56, -3.37, -2.89, -2.92, -2.92, -2.26, -2.26, -2.29, -1.76, -1.76, -1.65, -1.12, -1.23, -1.14, -1.14, -1.14, -1.14, -0.53, -0.59, -0.54, -0.54, -0.54, -0.61, -0.61, -0.61, -0.55, -0.55, -0.57, 0.0, 0.0, 0.0, 0.0, 0.0, 0.0, 0.0, -0.65, 0.0, -0.65, -0.65, -1.58, -1.79, -2.68, -1.79, -1.79, -1.34, 0.0, 0.0, 0.0, 0.0, -2.24, -2.6, -2.76, -2.31, -2.39, -1.62, -1.58, -1.33, -0.89, -0.71, -1.33, -2.07, -2.84, -2.21, -1.6, -1.6, -1.6, -8.85, -8.85, -8.85, -8.56, -8.56, -8.24, -8.24, -7.95, -7.95, -7.61, -7.61, -7.61, -6.97, -6.97, -6.97, -6.97, -6.33, -6.33, -6.33, -6.33, -5.69, -5.69, -5.69, -5.29, -5.29, -4.63, -4.63, -4.66, -4.66, -4.0, -4.0, -4.03, -3.56, -3.37, -3.37, -2.92, -2.92, -2.26, -2.26, -2.44, -1.76, -1.76, -1.76, -1.65, -1.12, -1.23, -1.14, -1.14, -1.14, -1.14, -0.59, -0.59, -0.59, -0.59, -0.54, -0.54, -0.61, -0.61, -0.55, -0.55, -0.63, -0.57, -0.57, 0.0, 0.0, 0.0, -0.59, -0.61, -0.53, -0.53, -0.61, -1.4, -1.9, -1.9, -1.79, -2.0, -2.0, 0.0, 0.0, 0.0, 0.0, -2.0, -2.98, -2.53, -2.4, -1.54, -0.75, -0.78, -0.77, -1.6, -1.49, -1.6, -1.58, -1.6, -1.34, 0.0, 0.0, 0.0, -8.85, -8.85, -8.85, -8.56, -8.56, -8.24, -8.24, -7.95, -7.95, -7.61, -7.61, -7.61, -6.97, -6.97, -6.97, -6.97, -6.33, -6.33, -6.33, -6.33, -5.69, -5.69, -5.69, -5.29, -5.29, -4.63, -4.63, -4.66, -4.66, -4.0, -4.0, -4.03, -3.56, -3.37, -3.37, -2.92, -2.92, -2.26, -2.26, -2.44, -1.76, -1.76, -1.76, -1.65, -1.12, -1.23, -1.14, -1.14, -1.14, -1.14, -0.59, -0.59, -0.59, -0.59, -0.54, -0.54, -0.61, -0.61, -0.55, -0.55, -0.63, -0.57, -0.57, 0.0, 0.0, 0.0, -0.59, -0.61, -0.53, -0.53, -0.61, -1.4, -1.9, -1.9, -1.79, -2.0, -1.26, 0.0, 0.0, 0.0, 0.0, -1.0, -2.53, -2.76, -2.26, -1.54, -0.79, -0.75, 0.0, 0.0, 0.0, 0.0, 0.0, 0.0, 0.0, 0.0, 0.0, 0.0]}]